FW4770 Weather Reports


time (UTC)temp
C
wind
direction
speed
KPH
gust
KPH
rain 1hr
cm
rain 24hr
cm
rain mn
cm
humidity
%
barometer
mb
20260904224308 28 96 11.3 19.3 0.00 0.00 0.00 70 1014.2
20260904224213 28 98 11.3 19.3 0.00 0.00 0.00 70 1014.2
20260904224058 28 117 11.3 19.3 0.00 0.00 0.00 70 1014.3
20260904224007 28 95 11.3 19.3 0.00 0.00 0.00 70 1014.2
20260904223911 28 119 14.5 19.3 0.00 0.00 0.00 70 1014.2
20260904223835 28 104 14.5 19.3 0.00 0.00 0.00 70 1014.3
20260904223719 28 115 9.7 17.7 0.00 0.00 0.00 70 1014.2
20260904223602 28 123 9.7 17.7 0.00 0.00 0.00 70 1014.1
20260904223507 28 113 12.9 17.7 0.00 0.00 0.00 70 1014.1
20260904223412 28 103 12.9 17.7 0.00 0.00 0.00 70 1014.1
20260904223300 28 81 12.9 17.7 0.00 0.00 0.00 70 1014.1
20260904223225 28 76 14.5 17.7 0.00 0.00 0.00 70 1014.1
20260904223109 28 94 11.3 19.3 0.00 0.00 0.00 70 1014.1
20260904223034 28 65 11.3 19.3 0.00 0.00 0.00 69 1014.1
20260904222857 28 108 12.9 19.3 0.00 0.00 0.00 70 1014.0
20260904222802 28 87 11.3 19.3 0.00 0.00 0.00 70 1014.0
20260904222707 28 92 11.3 19.3 0.00 0.00 0.00 70 1014.1
20260904222557 28 107 11.3 19.3 0.00 0.00 0.00 70 1014.0
20260904222500 28 113 11.3 19.3 0.00 0.00 0.00 70 1014.0
20260904222425 28 91 12.9 19.3 0.00 0.00 0.00 70 1013.9
20260904222309 28 104 16.1 19.3 0.00 0.00 0.00 70 1013.9
20260904222234 28 115 14.5 19.3 0.00 0.00 0.00 70 1014.0
20260904222058 28 129 11.3 17.7 0.00 0.00 0.00 70 1014.0
20260904222006 28 119 9.7 17.7 0.00 0.00 0.00 70 1014.0
20260904221910 28 101 8.0 17.7 0.00 0.00 0.00 70 1014.0
20260904221815 28 135 8.0 17.7 0.00 0.00 0.00 71 1014.0
20260904221700 28 117 9.7 17.7 0.00 0.00 0.00 70 1013.9
20260904221625 28 132 12.9 17.7 0.00 0.00 0.00 70 1013.9
20260904221529 28 92 12.9 17.7 0.00 0.00 0.00 71 1013.9
20260904221413 28 97 11.3 20.9 0.00 0.00 0.00 71 1013.9
20260904221302 28 84 9.7 20.9 0.00 0.00 0.00 71 1013.8
20260904221206 28 105 9.7 20.9 0.00 0.00 0.00 71 1013.8
20260904221130 28 99 9.7 20.9 0.00 0.00 0.00 71 1013.8
20260904221014 28 126 11.3 20.9 0.00 0.00 0.00 71 1013.8
20260904220859 28 103 14.5 20.9 0.00 0.00 0.00 71 1013.8
20260904220803 28 114 11.3 20.9 0.00 0.00 0.00 71 1013.8
20260904220708 28 106 11.3 20.9 0.00 0.00 0.00 71 1013.8
20260904220557 28 99 14.5 20.9 0.00 0.00 0.00 71 1013.8
20260904220501 28 119 11.3 17.7 0.00 0.00 0.00 71 1013.7
20260904220425 28 103 8.0 17.7 0.00 0.00 0.00 71 1013.7
20260904220329 28 127 8.0 17.7 0.00 0.00 0.00 70 1013.7
20260904220232 28 107 11.3 17.7 0.00 0.00 0.00 71 1013.7
20260904220056 28 109 8.0 17.7 0.00 0.00 0.00 71 1013.7
20260904220001 28 114 9.7 17.7 0.00 0.00 0.00 71 1013.7
20260904215910 28 87 11.3 17.7 0.00 0.00 0.00 71 1013.7
20260904215815 28 111 9.7 17.7 0.00 0.00 0.00 71 1013.8
20260904215700 28 139 9.7 17.7 0.00 0.00 0.00 71 1013.7
20260904215605 28 113 11.3 17.7 0.00 0.00 0.00 71 1013.7
20260904215510 28 107 12.9 17.7 0.00 0.00 0.00 71 1013.7
20260904215434 28 121 12.9 17.7 0.00 0.00 0.00 71 1013.7
20260904215305 28 106 11.3 17.7 0.00 0.00 0.00 71 1013.6
20260904215206 28 92 8.0 17.7 0.00 0.00 0.00 72 1013.6
20260904215131 28 51 8.0 17.7 0.00 0.00 0.00 72 1013.6
20260904215015 28 53 8.0 17.7 0.00 0.00 0.00 72 1013.6
20260904214900 28 90 9.7 17.7 0.00 0.00 0.00 71 1013.6
20260904214805 28 83 11.3 17.7 0.00 0.00 0.00 71 1013.7
20260904214710 28 86 11.3 17.7 0.00 0.00 0.00 72 1013.7
20260904214616 28 95 9.7 17.7 0.00 0.00 0.00 71 1013.7
20260904214520 28 107 8.0 17.7 0.00 0.00 0.00 72 1013.7
20260904214424 28 105 11.3 17.7 0.00 0.00 0.00 71 1013.6
20260904214308 28 86 12.9 17.7 0.00 0.00 0.00 71 1013.6
20260904214213 28 96 12.9 17.7 0.00 0.00 0.00 71 1013.6
20260904214118 28 98 11.3 17.7 0.00 0.00 0.00 71 1013.7
20260904214022 28 86 8.0 17.7 0.00 0.00 0.00 71 1013.7
20260904213910 28 109 8.0 17.7 0.00 0.00 0.00 71 1013.7
20260904213815 28 115 9.7 17.7 0.00 0.00 0.00 71 1013.7
20260904213720 28 121 11.3 17.7 0.00 0.00 0.00 71 1013.6
20260904213604 28 98 12.9 17.7 0.00 0.00 0.00 71 1013.6
20260904213509 28 94 11.3 16.1 0.00 0.00 0.00 71 1013.6
20260904213414 28 103 9.7 16.1 0.00 0.00 0.00 71 1013.6
20260904213303 28 88 11.3 16.1 0.00 0.00 0.00 71 1013.6
20260904213206 28 98 11.3 16.1 0.00 0.00 0.00 71 1013.7
20260904213111 28 121 9.7 16.1 0.00 0.00 0.00 70 1013.7
20260904213035 28 117 11.3 16.1 0.00 0.00 0.00 71 1013.6
20260904212859 28 153 11.3 16.1 0.00 0.00 0.00 71 1013.7
20260904212804 28 99 11.3 16.1 0.00 0.00 0.00 71 1013.7
20260904212728 28 105 11.3 14.5 0.00 0.00 0.00 71 1013.6
20260904212632 28 115 9.7 14.5 0.00 0.00 0.00 71 1013.6
20260904212520 28 104 9.7 17.7 0.00 0.00 0.00 71 1013.6
20260904212404 28 95 8.0 17.7 0.00 0.00 0.00 71 1013.7
20260904212329 28 130 8.0 17.7 0.00 0.00 0.00 70 1013.7
20260904212213 28 115 8.0 17.7 0.00 0.00 0.00 71 1013.7
20260904212058 28 120 6.4 17.7 0.00 0.00 0.00 71 1013.7
20260904212002 28 118 8.0 17.7 0.00 0.00 0.00 71 1013.8
20260904211906 28 136 9.7 17.7 0.00 0.00 0.00 71 1013.8
20260904211814 28 130 11.3 17.7 0.00 0.00 0.00 71 1013.8
20260904211659 28 111 9.7 17.7 0.00 0.00 0.00 71 1013.8
20260904211603 28 113 8.0 16.1 0.00 0.00 0.00 72 1013.8
20260904211506 28 85 8.0 17.7 0.00 0.00 0.00 71 1013.8
20260904211411 28 120 9.7 17.7 0.00 0.00 0.00 71 1013.8
20260904211259 28 107 9.7 17.7 0.00 0.00 0.00 71 1013.8
20260904211204 28 83 8.0 17.7 0.00 0.00 0.00 71 1013.8
20260904211127 28 91 9.7 17.7 0.00 0.00 0.00 71 1013.8
20260904211011 28 91 11.3 17.7 0.00 0.00 0.00 71 1013.8
20260904210915 28 109 11.3 17.7 0.00 0.00 0.00 71 1013.8
20260904210800 28 105 12.9 17.7 0.00 0.00 0.00 71 1013.8
20260904210705 28 105 12.9 17.7 0.00 0.00 0.00 71 1013.7
20260904210634 28 57 11.3 17.7 0.00 0.00 0.00 71 1013.7
20260904210457 28 84 8.0 17.7 0.00 0.00 0.00 71 1013.8
20260904210421 28 84 8.0 17.7 0.00 0.00 0.00 72 1013.8
20260904210258 28 115 8.0 17.7 0.00 0.00 0.00 72 1013.8
20260904210203 28 96 9.7 17.7 0.00 0.00 0.00 71 1013.8
20260904210107 28 72 9.7 19.3 0.00 0.00 0.00 72 1013.9
20260904210015 28 115 8.0 19.3 0.00 0.00 0.00 72 1013.9
20260904205900 28 79 11.3 19.3 0.00 0.00 0.00 71 1013.8
20260904205805 28 84 11.3 19.3 0.00 0.00 0.00 71 1013.8
20260904205710 28 109 9.7 19.3 0.00 0.00 0.00 72 1013.8
20260904205615 28 79 9.7 19.3 0.00 0.00 0.00 72 1013.8
20260904205500 28 87 9.7 19.3 0.00 0.00 0.00 72 1013.8
20260904205407 28 100 12.9 22.5 0.00 0.00 0.00 71 1013.8
20260904205332 28 105 12.9 22.5 0.00 0.00 0.00 71 1013.8
20260904205215 28 115 11.3 22.5 0.00 0.00 0.00 72 1013.8
20260904205101 28 92 11.3 22.5 0.00 0.00 0.00 71 1013.9
20260904205005 28 116 9.7 22.5 0.00 0.00 0.00 71 1013.9
20260904204930 28 117 9.7 22.5 0.00 0.00 0.00 71 1013.9
20260904204758 28 163 12.9 22.5 0.00 0.00 0.00 70 1013.9
20260904204723 28 119 12.9 22.5 0.00 0.00 0.00 71 1013.8
20260904204626 28 107 12.9 22.5 0.00 0.00 0.00 72 1013.8
20260904204510 28 135 12.9 22.5 0.00 0.00 0.00 72 1013.8
20260904204415 28 110 16.1 22.5 0.00 0.00 0.00 72 1013.8
20260904204300 28 105 14.5 22.5 0.00 0.00 0.00 72 1013.7
20260904204224 28 105 12.9 22.5 0.00 0.00 0.00 72 1013.8
20260904204108 28 84 14.5 22.5 0.00 0.00 0.00 72 1013.7
20260904203956 28 90 14.5 22.5 0.00 0.00 0.00 72 1013.7
20260904203901 28 85 12.9 22.5 0.00 0.00 0.00 72 1013.7
20260904203805 28 69 12.9 22.5 0.00 0.00 0.00 73 1013.7
20260904203710 28 86 12.9 22.5 0.00 0.00 0.00 73 1013.7
20260904203614 28 119 12.9 22.5 0.00 0.00 0.00 74 1013.7
20260904203503 28 94 11.3 22.5 0.00 0.00 0.00 74 1013.7
20260904203408 28 90 12.9 22.5 0.00 0.00 0.00 74 1013.7
20260904203313 28 91 14.5 22.5 0.00 0.00 0.00 74 1013.8
20260904203158 27 105 11.3 22.5 0.00 0.00 0.00 75 1013.8
20260904203123 27 87 8.0 14.5 0.00 0.00 0.00 75 1013.7
20260904203028 27 157 9.7 17.7 0.00 0.00 0.00 75 1013.7
20260904202911 28 140 11.3 17.7 0.00 0.00 0.00 75 1013.7
20260904202759 28 92 11.3 17.7 0.00 0.00 0.00 75 1013.7
20260904202724 28 116 9.7 17.7 0.00 0.00 0.00 75 1013.7
20260904202608 27 117 9.7 17.7 0.00 0.00 0.00 74 1013.7
20260904202533 27 113 9.7 17.7 0.00 0.00 0.00 75 1013.7
20260904202417 28 123 9.7 17.7 0.00 0.00 0.00 76 1013.7
20260904202300 27 84 11.3 17.7 0.00 0.00 0.00 75 1013.6
20260904202204 27 80 14.5 17.7 0.00 0.00 0.00 75 1013.7
20260904202108 27 89 12.9 17.7 0.00 0.00 0.00 74 1013.6
20260904202016 27 109 12.9 17.7 0.00 0.00 0.00 74 1013.6
20260904201939 27 98 12.9 17.7 0.00 0.00 0.00 75 1013.7
20260904201756 27 117 6.4 17.7 0.00 0.00 0.00 76 1013.7
20260904201701 27 83 8.0 17.7 0.00 0.00 0.00 76 1013.6
20260904201626 27 93 9.7 17.7 0.00 0.00 0.00 76 1013.7
20260904201510 27 106 6.4 16.1 0.00 0.00 0.00 77 1013.7
20260904201358 27 123 4.8 20.9 0.00 0.00 0.00 76 1013.7
20260904201303 27 124 4.8 20.9 0.00 0.00 0.00 76 1013.8
20260904201207 27 130 8.0 20.9 0.00 0.00 0.00 75 1013.8
20260904201112 27 133 9.7 20.9 0.00 0.00 0.00 75 1013.8
20260904201017 27 131 11.3 20.9 0.00 0.00 0.00 76 1013.8
20260904200901 27 111 11.3 20.9 0.00 0.00 0.00 76 1013.8
20260904200805 27 121 8.0 20.9 0.00 0.00 0.00 77 1013.7
20260904200714 27 95 9.7 20.9 0.00 0.00 0.00 78 1013.7
20260904200619 27 146 12.9 20.9 0.00 0.00 0.00 77 1013.7
20260904200503 27 103 11.3 17.7 0.00 0.00 0.00 77 1013.8
20260904200408 27 130 11.3 17.7 0.00 0.00 0.00 78 1013.8
20260904200312 27 93 9.7 17.7 0.00 0.00 0.00 78 1013.8
20260904200157 27 113 4.8 17.7 0.00 0.00 0.00 80 1013.8
20260904200105 27 121 4.8 24.1 0.00 0.00 0.00 79 1013.7
20260904200030 27 123 8.0 24.1 0.00 0.00 0.00 79 1013.7
20260904195914 27 121 9.7 24.1 0.00 0.00 0.00 79 1013.8
20260904195759 27 103 9.7 24.1 0.00 0.00 0.00 79 1013.7
20260904195704 27 121 11.3 24.1 0.00 0.00 0.00 79 1013.7
20260904195628 27 117 9.7 24.1 0.00 0.00 0.00 79 1013.7
20260904195456 27 108 11.3 24.1 0.00 0.00 0.00 79 1013.8
20260904195421 27 103 14.5 24.1 0.00 0.00 0.00 79 1013.7
20260904195325 27 94 14.5 24.1 0.00 0.00 0.00 80 1013.7
20260904195209 27 98 11.3 20.9 0.00 0.00 0.00 80 1013.7
20260904195114 27 114 8.0 20.9 0.00 0.00 0.00 81 1013.7
20260904194959 27 138 8.0 17.7 0.00 0.00 0.00 80 1013.7
20260904194904 27 137 8.0 17.7 0.00 0.00 0.00 81 1013.7
20260904194829 27 155 3.2 16.1 0.00 0.00 0.00 82 1013.7
20260904194737 27 108 3.2 22.5 0.00 0.00 0.00 81 1013.7
20260904194639 27 94 4.8 22.5 0.00 0.00 0.00 82 1013.6
20260904194456 27 109 6.4 22.5 0.00 0.00 0.00 82 1013.7
20260904194401 27 112 8.0 22.5 0.00 0.00 0.00 82 1013.8
20260904194306 26 168 8.0 22.5 0.00 0.00 0.00 81 1013.7
20260904194211 26 165 9.7 22.5 0.00 0.00 0.00 81 1013.7
20260904194100 26 123 8.0 22.5 0.00 0.00 0.00 81 1013.8
20260904194004 26 157 9.7 22.5 0.00 0.00 0.00 81 1013.8
20260904193909 26 163 11.3 22.5 0.00 0.00 0.00 81 1013.8
20260904193813 26 187 9.7 17.7 0.00 0.00 0.00 81 1013.8
20260904193718 26 179 11.3 17.7 0.00 0.00 0.00 81 1013.9
20260904193643 26 141 11.3 17.7 0.00 0.00 0.00 81 1013.9
20260904193500 26 118 11.3 17.7 0.00 0.00 0.00 81 1013.9
20260904193409 26 109 11.3 17.7 0.00 0.00 0.00 82 1013.9
20260904193314 26 129 12.9 17.7 0.00 0.00 0.00 82 1013.9
20260904193218 26 108 11.3 16.1 0.00 0.00 0.00 82 1013.9
20260904193056 26 168 8.0 16.1 0.00 0.00 0.00 83 1013.9
20260904193021 26 140 9.7 16.1 0.00 0.00 0.00 82 1014.0
20260904192905 26 112 9.7 16.1 0.00 0.00 0.00 82 1014.0
20260904192813 26 140 9.7 16.1 0.00 0.00 0.00 82 1014.0
20260904192719 26 135 8.0 16.1 0.00 0.00 0.00 83 1014.0
20260904192556 26 117 8.0 16.1 0.00 0.00 0.00 82 1014.1
20260904192501 26 135 9.7 16.1 0.00 0.00 0.00 83 1014.0
20260904192406 26 112 8.0 16.1 0.00 0.00 0.00 82 1014.1
20260904192311 26 137 9.7 16.1 0.00 0.00 0.00 82 1014.1
20260904192159 26 114 9.7 16.1 0.00 0.00 0.00 82 1014.1
20260904192104 26 55 9.7 16.1 0.00 0.00 0.00 82 1014.0
20260904192008 26 126 9.7 14.5 0.00 0.00 0.00 82 1014.0
20260904191912 26 130 9.7 12.9 0.00 0.00 0.00 83 1014.1
20260904191757 26 160 9.7 12.9 0.00 0.00 0.00 83 1014.0
20260904191702 26 144 8.0 12.9 0.00 0.00 0.00 83 1014.0
20260904191611 26 125 9.7 14.5 0.00 0.00 0.00 83 1014.0
20260904191535 26 107 9.7 14.5 0.00 0.00 0.00 83 1014.0
20260904191419 26 155 6.4 14.5 0.00 0.00 0.00 84 1014.0
20260904191303 26 123 4.8 14.5 0.00 0.00 0.00 84 1013.9
20260904191227 26 144 6.4 14.5 0.00 0.00 0.00 83 1014.0
20260904191110 26 141 8.0 14.5 0.00 0.00 0.00 84 1014.0
20260904191014 26 148 8.0 14.5 0.00 0.00 0.00 84 1014.0
20260904190903 26 143 9.7 14.5 0.00 0.00 0.00 84 1014.0
20260904190807 25 90 11.3 14.5 0.00 0.00 0.00 84 1014.0
20260904190712 25 135 8.0 14.5 0.00 0.00 0.00 85 1013.9
20260904190617 25 115 4.8 14.5 0.00 0.00 0.00 86 1013.9
20260904190520 25 108 6.4 14.5 0.00 0.00 0.00 85 1013.9
20260904190424 25 90 8.0 14.5 0.00 0.00 0.00 85 1013.9
20260904190308 25 106 8.0 14.5 0.00 0.00 0.00 85 1013.9
20260904190232 25 123 8.0 14.5 0.00 0.00 0.00 85 1013.9
20260904190120 25 130 11.3 14.5 0.00 0.00 0.00 84 1013.9
20260904190024 25 115 8.0 14.5 0.00 0.00 0.00 85 1013.9
20260904185908 25 140 8.0 14.5 0.00 0.00 0.00 84 1013.9
20260904185833 25 169 8.0 14.5 0.00 0.00 0.00 84 1013.9
20260904185657 25 134 9.7 14.5 0.00 0.00 0.00 84 1014.0
20260904185601 25 132 9.7 14.5 0.00 0.00 0.00 84 1013.9
20260904185505 25 107 11.3 14.5 0.00 0.00 0.00 84 1014.0
20260904185414 25 117 9.7 14.5 0.00 0.00 0.00 85 1014.0
20260904185319 25 121 8.0 14.5 0.00 0.00 0.00 85 1014.0
20260904185156 25 115 9.7 14.5 0.00 0.00 0.00 85 1014.0
20260904185101 25 118 9.7 14.5 0.00 0.00 0.00 85 1014.0
20260904185006 25 126 9.7 19.3 0.00 0.00 0.00 84 1014.0
20260904184911 25 109 9.7 19.3 0.00 0.00 0.00 85 1014.0
20260904184759 25 107 8.0 19.3 0.00 0.00 0.00 85 1014.0
20260904184704 25 117 8.0 20.9 0.00 0.00 0.00 85 1014.0
20260904184628 25 130 9.7 20.9 0.00 0.00 0.00 85 1014.0
20260904184511 25 117 8.0 20.9 0.00 0.00 0.00 86 1014.0
20260904184416 25 124 8.0 20.9 0.00 0.00 0.00 85 1014.0
20260904184320 25 106 11.3 20.9 0.00 0.00 0.00 85 1014.1
20260904184158 25 105 14.5 20.9 0.00 0.00 0.00 85 1014.1
20260904184123 25 113 14.5 20.9 0.00 0.00 0.00 85 1014.1
20260904184010 25 103 12.9 20.9 0.00 0.00 0.00 85 1014.1
20260904183915 25 138 12.9 20.9 0.00 0.00 0.00 85 1014.1
20260904183818 25 119 12.9 19.3 0.00 0.00 0.00 85 1014.1
20260904183656 25 121 12.9 19.3 0.00 0.00 0.00 85 1014.1
20260904183601 25 116 9.7 14.5 0.00 0.00 0.00 85 1014.1
20260904183506 25 95 8.0 14.5 0.00 0.00 0.00 85 1014.1
20260904183415 25 132 8.0 14.5 0.00 0.00 0.00 84 1014.1
20260904183319 25 130 6.4 12.9 0.00 0.00 0.00 85 1014.1
20260904183156 25 126 8.0 12.9 0.00 0.00 0.00 85 1014.1
20260904183101 25 90 8.0 14.5 0.00 0.00 0.00 86 1014.1
20260904183005 24 98 6.4 14.5 0.00 0.00 0.00 86 1014.1
20260904182910 24 86 4.8 14.5 0.00 0.00 0.00 86 1014.1
20260904182759 24 123 4.8 14.5 0.00 0.00 0.00 86 1014.1
20260904182723 24 123 3.2 14.5 0.00 0.00 0.00 86 1014.1
20260904182600 24 132 3.2 14.5 0.00 0.00 0.00 85 1014.1
20260904182505 24 132 6.4 16.1 0.00 0.00 0.00 84 1014.0
20260904182410 24 132 9.7 16.1 0.00 0.00 0.00 84 1014.0
20260904182259 24 124 11.3 16.1 0.00 0.00 0.00 85 1014.1
20260904182203 24 114 9.7 16.1 0.00 0.00 0.00 86 1014.1
20260904182108 24 136 9.7 16.1 0.00 0.00 0.00 86 1014.1
20260904182012 24 93 9.7 16.1 0.00 0.00 0.00 86 1014.1
20260904181857 24 96 9.7 16.1 0.00 0.00 0.00 87 1014.1
20260904181821 24 84 9.7 16.1 0.00 0.00 0.00 87 1014.1
20260904181704 24 78 11.3 16.1 0.00 0.00 0.00 87 1014.1
20260904181612 24 70 9.7 16.1 0.00 0.00 0.00 87 1014.1
20260904181457 23 63 8.0 16.1 0.00 0.00 0.00 87 1014.1
20260904181420 23 149 8.0 16.1 0.00 0.00 0.00 87 1014.1
20260904181258 23 101 12.9 16.1 0.00 0.00 0.00 87 1014.1
20260904181203 23 87 9.7 16.1 0.00 0.00 0.00 88 1014.1
20260904181108 23 102 8.0 16.1 0.00 0.00 0.00 88 1014.1
20260904180957 23 84 6.4 16.1 0.00 0.00 0.00 87 1014.1
20260904180901 23 96 9.7 16.1 0.00 0.00 0.00 87 1014.1
20260904180806 23 111 11.3 16.1 0.00 0.00 0.00 87 1014.2
20260904180709 23 105 9.7 16.1 0.00 0.00 0.00 87 1014.1
20260904180611 23 106 8.0 16.1 0.00 0.00 0.00 88 1014.1
20260904180500 23 110 4.8 16.1 0.00 0.00 0.00 88 1014.2
20260904180403 23 133 6.4 16.1 0.00 0.00 0.00 88 1014.1
20260904180308 23 82 8.0 16.1 0.00 0.00 0.00 88 1014.1
20260904180233 23 88 9.7 16.1 0.00 0.00 0.00 89 1014.1
20260904180116 23 88 9.7 20.9 0.00 0.00 0.00 88 1014.1
20260904180041 23 118 9.7 20.9 0.00 0.00 0.00 89 1014.2
20260904175858 23 102 9.7 20.9 0.00 0.00 0.00 89 1014.3
20260904175807 23 107 11.3 20.9 0.00 0.00 0.00 89 1014.3
20260904175712 23 99 9.7 20.9 0.00 0.00 0.00 89 1014.2
20260904175616 22 107 9.7 20.9 0.00 0.00 0.00 89 1014.1
20260904175541 22 113 11.3 20.9 0.00 0.00 0.00 89 1014.3
20260904175358 22 94 14.5 20.9 0.00 0.00 0.00 89 1014.3
20260904175301 22 93 12.9 20.9 0.00 0.00 0.00 90 1014.3
20260904175205 22 111 12.9 19.3 0.00 0.00 0.00 89 1014.3
20260904175113 22 106 14.5 19.3 0.00 0.00 0.00 89 1014.3
20260904175018 22 107 14.5 19.3 0.00 0.00 0.00 89 1014.3
20260904174856 22 115 14.5 20.9 0.00 0.00 0.00 89 1014.3
20260904174801 22 116 12.9 20.9 0.00 0.00 0.00 89 1014.3
20260904174726 22 124 12.9 20.9 0.00 0.00 0.00 89 1014.3
20260904174610 22 121 12.9 20.9 0.00 0.00 0.00 90 1014.3
20260904174518 22 146 12.9 20.9 0.00 0.00 0.00 90 1014.2
20260904174356 22 121 12.9 20.9 0.00 0.00 0.00 90 1014.2
20260904174320 22 125 14.5 20.9 0.00 0.00 0.00 89 1014.2
20260904174158 22 93 16.1 20.9 0.00 0.00 0.00 89 1014.3
20260904174103 22 128 14.5 20.9 0.00 0.00 0.00 89 1014.3
20260904174028 22 141 12.9 20.9 0.00 0.00 0.00 89 1014.3
20260904173856 23 144 12.9 20.9 0.00 0.00 0.00 89 1014.3
20260904173759 23 128 14.5 20.9 0.00 0.00 0.00 90 1014.3
20260904173703 23 102 14.5 20.9 0.00 0.00 0.00 90 1014.3
20260904173608 23 115 14.5 20.9 0.00 0.00 0.00 90 1014.3
20260904173513 23 114 12.9 20.9 0.00 0.00 0.00 90 1014.3
20260904173418 23 98 12.9 20.9 0.00 0.00 0.00 90 1014.2
20260904173322 23 92 16.1 20.9 0.00 0.00 0.00 90 1014.3
20260904173209 23 85 16.1 20.9 0.00 0.00 0.00 90 1014.3
20260904173114 23 103 16.1 19.3 0.00 0.00 0.00 90 1014.2
20260904173018 23 113 12.9 19.3 0.00 0.00 0.00 91 1014.1
20260904172856 22 104 11.3 19.3 0.00 0.00 0.00 91 1014.2
20260904172821 22 128 11.3 19.3 0.00 0.00 0.00 91 1014.1
20260904172705 22 117 11.3 22.5 0.00 0.00 0.00 92 1014.1
20260904172630 22 114 11.3 22.5 0.00 0.00 0.00 91 1014.1
20260904172517 22 87 11.3 22.5 0.00 0.00 0.00 92 1014.1
20260904172420 22 93 11.3 22.5 0.00 0.00 0.00 91 1014.1
20260904172257 22 92 12.9 24.1 0.00 0.00 0.00 92 1014.0
20260904172202 22 107 14.5 24.1 0.00 0.00 0.00 92 1014.1
20260904172127 22 89 14.5 24.1 0.00 0.00 0.00 92 1014.0
20260904172011 22 46 16.1 24.1 0.00 0.00 0.00 91 1014.0
20260904171935 22 94 16.1 24.1 0.00 0.00 0.00 91 1014.1
20260904171819 22 90 17.7 24.1 0.00 0.00 0.00 91 1014.1
20260904171707 22 101 17.7 24.1 0.00 0.00 0.00 91 1014.1
20260904171612 22 88 17.7 24.1 0.00 0.00 0.00 91 1014.0
20260904171456 22 96 16.1 20.9 0.00 0.00 0.00 92 1014.0
20260904171401 22 76 16.1 20.9 0.00 0.00 0.00 91 1014.0
20260904171306 22 95 14.5 20.9 0.00 0.00 0.00 92 1014.0
20260904171211 22 105 16.1 20.9 0.00 0.00 0.00 92 1014.0
20260904171058 22 92 14.5 20.9 0.00 0.00 0.00 92 1014.0
20260904171003 22 107 14.5 17.7 0.00 0.00 0.00 92 1013.9
20260904170907 22 96 12.9 17.7 0.00 0.00 0.00 92 1013.9
20260904170812 23 90 12.9 17.7 0.00 0.00 0.00 93 1013.9
20260904170656 22 96 11.3 17.7 0.00 0.00 0.00 93 1013.8
20260904170621 22 111 11.3 17.7 0.00 0.00 0.00 93 1013.8
20260904170509 23 94 11.3 17.7 0.00 0.00 0.00 93 1013.8
20260904170433 23 117 11.3 16.1 0.00 0.00 0.00 93 1013.8
20260904170257 23 128 11.3 17.7 0.00 0.00 0.00 93 1013.8
20260904170202 23 131 11.3 17.7 0.00 0.00 0.00 93 1013.8
20260904170106 23 97 11.3 17.7 0.00 0.00 0.00 93 1013.9
20260904170031 22 105 9.7 17.7 0.00 0.00 0.00 93 1013.9
20260904165934 22 116 9.7 17.7 0.00 0.00 0.00 93 1013.8
20260904165822 22 126 9.7 17.7 0.00 0.00 0.00 93 1013.8
20260904165706 22 96 11.3 17.7 0.00 0.00 0.00 93 1013.8
20260904165611 22 124 12.9 17.7 0.00 0.00 0.00 93 1013.8
20260904165516 22 109 12.9 17.7 0.00 0.00 0.00 93 1013.8
20260904165440 22 113 12.9 19.3 0.00 0.00 0.00 94 1013.8
20260904165344 22 132 12.9 19.3 0.00 0.00 0.00 94 1013.8
20260904165200 22 111 11.3 19.3 0.00 0.00 0.00 94 1013.8
20260904165125 22 70 12.9 19.3 0.00 0.00 0.00 94 1013.8
20260904165033 22 117 12.9 19.3 0.00 0.00 0.00 94 1013.8
20260904164857 22 119 11.3 19.3 0.00 0.00 0.00 94 1013.8
20260904164822 22 111 12.9 19.3 0.00 0.00 0.00 94 1013.8
20260904164706 22 109 14.5 19.3 0.00 0.00 0.00 94 1013.8
20260904164611 22 101 12.9 19.3 0.00 0.00 0.00 94 1013.8
20260904164515 22 114 11.3 17.7 0.00 0.00 0.00 94 1013.8
20260904164404 22 79 11.3 17.7 0.00 0.00 0.00 94 1013.8
20260904164309 22 117 12.9 17.7 0.00 0.00 0.00 94 1013.8
20260904164214 22 106 14.5 17.7 0.00 0.00 0.00 94 1013.7
20260904164119 22 99 12.9 17.7 0.00 0.00 0.00 94 1013.8
20260904163956 22 108 11.3 17.7 0.00 0.00 0.00 94 1013.9
20260904163901 22 121 12.9 19.3 0.00 0.00 0.00 94 1013.9
20260904163810 22 101 12.9 19.3 0.00 0.00 0.00 94 1013.9
20260904163735 22 110 12.9 19.3 0.00 0.00 0.00 94 1013.9
20260904163559 22 104 12.9 19.3 0.00 0.00 0.00 94 1013.8
20260904163524 22 76 11.3 19.3 0.00 0.00 0.00 94 1013.7
20260904163408 22 96 11.3 19.3 0.00 0.00 0.00 94 1013.7
20260904163313 22 126 11.3 19.3 0.00 0.00 0.00 94 1013.8
20260904163217 22 119 12.9 19.3 0.00 0.00 0.00 94 1013.7
20260904163104 22 118 12.9 19.3 0.00 0.00 0.00 94 1013.6
20260904163029 23 134 12.9 19.3 0.00 0.00 0.00 95 1013.6
20260904162913 23 109 12.9 19.3 0.00 0.00 0.00 94 1013.6
20260904162818 23 93 12.9 19.3 0.00 0.00 0.00 95 1013.6
20260904162656 23 118 9.7 19.3 0.00 0.00 0.00 95 1013.7
20260904162601 23 100 8.0 16.1 0.00 0.00 0.00 95 1013.6
20260904162506 23 130 9.7 16.1 0.00 0.00 0.00 95 1013.7
20260904162415 23 102 8.0 16.1 0.00 0.00 0.00 95 1013.7
20260904162320 23 135 9.7 16.1 0.00 0.00 0.00 94 1013.6
20260904162157 23 127 12.9 16.1 0.00 0.00 0.00 95 1013.5
20260904162102 23 110 9.7 16.1 0.00 0.00 0.00 95 1013.5
20260904162005 23 93 9.7 17.7 0.00 0.00 0.00 95 1013.5
20260904161909 23 91 11.3 17.7 0.00 0.00 0.00 95 1013.5
20260904161818 23 105 12.9 19.3 0.00 0.00 0.00 95 1013.4
20260904161656 23 109 12.9 19.3 0.00 0.00 0.00 95 1013.4
20260904161559 23 103 12.9 19.3 0.00 0.00 0.00 95 1013.4
20260904161524 23 113 12.9 19.3 0.00 0.00 0.00 95 1013.3
20260904161407 23 130 11.3 19.3 0.00 0.00 0.00 95 1013.3
20260904161312 23 107 11.3 19.3 0.00 0.00 0.00 95 1013.2
20260904161220 23 115 11.3 19.3 0.00 0.00 0.00 95 1013.3
20260904161058 23 119 14.5 19.3 0.00 0.00 0.00 95 1013.2
20260904161002 23 99 12.9 19.3 0.00 0.00 0.00 95 1013.2
20260904160906 23 115 11.3 19.3 0.00 0.00 0.00 95 1013.3
20260904160810 23 113 11.3 16.1 0.00 0.00 0.00 95 1013.3
20260904160715 23 123 11.3 16.1 0.00 0.00 0.00 95 1013.3
20260904160603 23 114 11.3 16.1 0.00 0.00 0.00 95 1013.3
20260904160508 23 115 9.7 16.1 0.00 0.00 0.00 95 1013.3
20260904160433 23 108 9.7 16.1 0.00 0.00 0.00 95 1013.3
20260904160257 23 100 9.7 16.1 0.00 0.00 0.00 95 1013.3
20260904160222 23 115 9.7 16.1 0.00 0.00 0.00 95 1013.3
20260904160100 23 107 9.7 16.1 0.00 0.00 0.00 94 1013.3
20260904160009 23 110 9.7 16.1 0.00 0.00 0.00 94 1013.3
20260904155912 23 107 11.3 16.1 0.00 0.00 0.00 94 1013.4
20260904155756 23 88 11.3 16.1 0.00 0.00 0.00 94 1013.3
20260904155701 23 109 11.3 16.1 0.00 0.00 0.00 94 1013.3
20260904155606 23 105 9.7 16.1 0.00 0.00 0.00 94 1013.3
20260904155511 23 78 8.0 14.5 0.00 0.00 0.00 94 1013.3
20260904155400 23 95 8.0 14.5 0.00 0.00 0.00 94 1013.3
20260904155307 23 96 8.0 14.5 0.00 0.00 0.00 94 1013.3
20260904155209 23 56 9.7 14.5 0.00 0.00 0.00 94 1013.3
20260904155114 23 98 9.7 14.5 0.00 0.00 0.00 94 1013.3
20260904154959 23 109 9.7 14.5 0.00 0.00 0.00 94 1013.3
20260904154904 23 94 11.3 14.5 0.00 0.00 0.00 94 1013.2
20260904154812 23 86 11.3 14.5 0.00 0.00 0.00 94 1013.2
20260904154657 23 97 9.7 14.5 0.00 0.00 0.00 94 1013.2
20260904154622 23 81 8.0 14.5 0.00 0.00 0.00 94 1013.2
20260904154459 23 37 4.8 14.5 0.00 0.00 0.00 94 1013.2
20260904154404 23 99 4.8 14.5 0.00 0.00 0.00 94 1013.2
20260904154309 23 99 6.4 14.5 0.00 0.00 0.00 94 1013.2
20260904154158 23 94 6.4 14.5 0.00 0.00 0.00 94 1013.1
20260904154103 23 99 9.7 14.5 0.00 0.00 0.00 94 1013.1
20260904154007 23 96 11.3 14.5 0.00 0.00 0.00 94 1013.1
20260904153912 23 92 11.3 12.9 0.00 0.00 0.00 94 1013.1
20260904153757 23 111 9.7 14.5 0.00 0.00 0.00 94 1013.2
20260904153702 23 106 6.4 14.5 0.00 0.00 0.00 94 1013.2
20260904153611 23 133 6.4 14.5 0.00 0.00 0.00 94 1013.2
20260904153536 23 116 8.0 14.5 0.00 0.00 0.00 94 1013.1
20260904153419 23 102 9.7 14.5 0.00 0.00 0.00 94 1013.1
20260904153323 23 108 8.0 14.5 0.00 0.00 0.00 93 1013.0
20260904153207 23 104 9.7 14.5 0.00 0.00 0.00 93 1013.0
20260904153111 23 99 9.7 14.5 0.00 0.00 0.00 93 1013.0
20260904152956 23 97 11.3 14.5 0.00 0.00 0.00 93 1013.0
20260904152905 23 96 11.3 14.5 0.00 0.00 0.00 93 1013.0
20260904152807 23 93 9.7 14.5 0.00 0.00 0.00 93 1013.0
20260904152712 23 104 6.4 14.5 0.00 0.00 0.00 93 1013.0
20260904152617 23 98 6.4 14.5 0.00 0.00 0.00 93 1012.9
20260904152501 23 98 9.7 14.5 0.00 0.00 0.00 93 1013.0
20260904152426 23 106 9.7 14.5 0.00 0.00 0.00 93 1012.9
20260904152310 23 92 11.3 14.5 0.00 0.00 0.00 93 1012.9
20260904152158 23 99 9.7 14.5 0.00 0.00 0.00 93 1012.9
20260904152103 23 88 11.3 14.5 0.00 0.00 0.00 93 1012.8
20260904152007 23 103 11.3 14.5 0.00 0.00 0.00 93 1012.8
20260904151912 23 94 11.3 14.5 0.00 0.00 0.00 93 1012.9
20260904151757 23 94 11.3 14.5 0.00 0.00 0.00 93 1012.7
20260904151700 23 94 9.7 14.5 0.00 0.00 0.00 93 1012.7
20260904151609 23 115 9.7 14.5 0.00 0.00 0.00 93 1012.7
20260904151514 23 113 9.7 14.5 0.00 0.00 0.00 93 1012.7
20260904151359 23 109 8.0 14.5 0.00 0.00 0.00 93 1012.7
20260904151304 23 85 8.0 14.5 0.00 0.00 0.00 93 1012.7
20260904151228 23 115 8.0 14.5 0.00 0.00 0.00 93 1012.7
20260904151112 23 119 8.0 14.5 0.00 0.00 0.00 93 1012.7
20260904151001 23 93 8.0 12.9 0.00 0.00 0.00 93 1012.6
20260904150906 23 94 9.7 12.9 0.00 0.00 0.00 93 1012.7
20260904150810 23 93 8.0 12.9 0.00 0.00 0.00 93 1012.7
20260904150715 23 97 8.0 12.9 0.00 0.00 0.00 93 1012.6
20260904150619 23 122 8.0 12.9 0.00 0.00 0.00 94 1012.6
20260904150503 23 101 6.4 9.7 0.00 0.00 0.00 94 1012.6
20260904150412 23 119 8.0 9.7 0.00 0.00 0.00 94 1012.6
20260904150256 23 110 6.4 11.3 0.00 0.00 0.00 94 1012.6
20260904150221 23 111 4.8 11.3 0.00 0.00 0.00 94 1012.6
20260904150104 23 111 4.8 11.3 0.00 0.00 0.00 94 1012.6
20260904150009 23 111 4.8 11.3 0.00 0.00 0.00 94 1012.6
20260904145913 23 112 4.8 11.3 0.00 0.00 0.00 94 1012.6
20260904145818 23 112 4.8 11.3 0.00 0.00 0.00 94 1012.5
20260904145725 23 113 6.4 11.3 0.00 0.00 0.00 94 1012.6
20260904145609 23 113 6.4 11.3 0.00 0.00 0.00 94 1012.6
20260904145514 23 99 4.8 11.3 0.00 0.00 0.00 95 1012.5
20260904145358 23 111 4.8 6.4 0.00 0.00 0.00 95 1012.5
20260904145305 23 112 3.2 6.4 0.00 0.00 0.00 95 1012.6
20260904145207 23 112 3.2 6.4 0.00 0.00 0.00 95 1012.6
20260904145056 23 112 3.2 6.4 0.00 0.00 0.00 95 1012.5
20260904145001 23 136 1.6 6.4 0.00 0.00 0.00 95 1012.5
20260904144906 23 136 3.2 6.4 0.00 0.00 0.00 95 1012.5
20260904144830 23 136 3.2 6.4 0.00 0.00 0.00 95 1012.5
20260904144714 23 136 3.2 6.4 0.00 0.00 0.00 95 1012.5
20260904144559 23 136 4.8 6.4 0.00 0.00 0.00 95 1012.5
20260904144507 23 136 4.8 6.4 0.00 0.00 0.00 95 1012.5
20260904144412 23 137 3.2 6.4 0.00 0.00 0.00 95 1012.5
20260904144257 22 150 1.6 8.0 0.00 0.00 0.00 95 1012.4
20260904144202 22 150 1.6 8.0 0.00 0.00 0.00 95 1012.3
20260904144127 22 150 3.2 8.0 0.00 0.00 0.00 96 1012.3
20260904144011 22 150 3.2 8.0 0.00 0.00 0.00 95 1012.3
20260904143859 22 150 3.2 8.0 0.00 0.00 0.00 96 1012.4
20260904143803 22 198 1.6 8.0 0.00 0.00 0.00 96 1012.4
20260904143708 22 199 1.6 8.0 0.00 0.00 0.00 96 1012.4
20260904143613 22 199 1.6 8.0 0.00 0.00 0.00 96 1012.3
20260904143518 22 199 3.2 8.0 0.00 0.00 0.00 96 1012.3
20260904143401 22 199 4.8 8.0 0.00 0.00 0.00 96 1012.2
20260904143326 22 199 6.4 9.7 0.00 0.00 0.00 96 1012.2
20260904143209 22 199 6.4 9.7 0.00 0.00 0.00 96 1012.2
20260904143058 22 199 6.4 9.7 0.00 0.00 0.00 96 1012.2
20260904143003 22 207 6.4 9.7 0.00 0.00 0.00 96 1012.2
20260904142927 22 209 4.8 9.7 0.00 0.00 0.00 96 1012.2
20260904142811 22 209 4.8 9.7 0.00 0.00 0.00 96 1012.2
20260904142656 22 209 4.8 9.7 0.00 0.00 0.00 96 1012.2
20260904142600 22 203 6.4 9.7 0.00 0.00 0.00 96 1012.1
20260904142509 22 202 6.4 9.7 0.00 0.00 0.00 97 1012.1
20260904142414 22 195 6.4 9.7 0.00 0.00 0.00 97 1012.1
20260904142258 22 188 6.4 9.7 0.00 0.00 0.00 97 1012.0
20260904142204 22 188 6.4 9.7 0.00 0.00 0.00 97 1012.0
20260904142109 22 183 6.4 9.7 0.00 0.00 0.00 97 1012.0
20260904142034 22 186 6.4 9.7 0.00 0.00 0.00 97 1012.1
20260904141901 22 188 6.4 9.7 0.00 0.00 0.00 97 1012.0
20260904141805 22 185 6.4 9.7 0.00 0.00 0.00 97 1012.0
20260904141710 22 178 6.4 9.7 0.00 0.00 0.00 97 1012.0
20260904141615 22 173 6.4 8.0 0.00 0.00 0.00 97 1012.1
20260904141540 22 171 4.8 6.4 0.00 0.00 0.00 97 1012.0
20260904141443 22 171 4.8 9.7 0.00 0.00 0.00 97 1012.0
20260904141300 22 170 3.2 9.7 0.00 0.00 0.00 97 1012.0
20260904141209 22 171 3.2 9.7 0.00 0.00 0.00 97 1012.0
20260904141114 22 171 3.2 9.7 0.00 0.00 0.00 97 1012.0
20260904141019 22 171 6.4 9.7 0.00 0.00 0.00 97 1011.9
20260904140923 22 171 6.4 9.7 0.00 0.00 0.00 97 1011.9
20260904140806 22 167 6.4 9.7 0.00 0.00 0.00 97 1011.9
20260904140711 22 166 6.4 9.7 0.00 0.00 0.00 97 1011.9
20260904140615 22 165 3.2 8.0 0.00 0.00 0.00 97 1012.0
20260904140504 21 153 1.6 4.8 0.00 0.00 0.00 97 1012.0
20260904140409 21 153 1.6 4.8 0.00 0.00 0.00 97 1012.0
20260904140313 21 153 3.2 4.8 0.00 0.00 0.00 97 1012.1
20260904140159 21 153 1.6 4.8 0.00 0.00 0.00 97 1012.1
20260904140008 21 153 3.2 4.8 0.00 0.00 0.00 97 1012.1
20260904135856 21 153 3.2 4.8 0.00 0.00 0.00 97 1012.2
20260904135801 21 153 1.6 4.8 0.00 0.00 0.00 97 1012.1
20260904135706 21 153 3.2 4.8 0.00 0.00 0.00 97 1012.1
20260904135631 21 153 3.2 4.8 0.00 0.00 0.00 97 1012.1
20260904135535 21 153 3.2 4.8 0.00 0.00 0.00 97 1012.1
20260904135358 21 153 0.0 4.8 0.00 0.00 0.00 97 1012.1
20260904135306 21 90 0.0 3.2 0.00 0.00 0.00 97 1012.2
20260904135212 21 90 0.0 3.2 0.00 0.00 0.00 97 1012.2
20260904135057 21 90 0.0 3.2 0.00 0.00 0.00 97 1012.2
20260904135002 21 90 0.0 3.2 0.00 0.00 0.00 97 1012.2
20260904134907 21 90 0.0 3.2 0.00 0.00 0.00 97 1012.2
20260904134812 21 90 0.0 3.2 0.00 0.00 0.00 97 1012.1
20260904134717 21 90 1.6 3.2 0.00 0.00 0.00 97 1012.2
20260904134605 21 90 1.6 3.2 0.00 0.00 0.00 97 1012.1
20260904134509 21 90 1.6 3.2 0.00 0.00 0.00 97 1012.1
20260904134415 21 90 1.6 3.2 0.00 0.00 0.00 97 1012.1
20260904134320 21 90 0.0 3.2 0.00 0.00 0.00 97 1012.1
20260904134157 21 90 1.6 3.2 0.00 0.00 0.00 96 1012.1
20260904134101 21 90 1.6 3.2 0.00 0.00 0.00 96 1012.2
20260904134008 21 90 1.6 4.8 0.00 0.00 0.00 96 1012.2
20260904133934 20 90 1.6 4.8 0.00 0.00 0.00 96 1012.2
20260904133818 20 90 1.6 4.8 0.00 0.00 0.00 96 1012.1
20260904133702 20 90 0.0 4.8 0.00 0.00 0.00 96 1012.1
20260904133606 20 90 0.0 4.8 0.00 0.00 0.00 96 1012.2
20260904133511 20 90 1.6 4.8 0.00 0.00 0.00 96 1012.2
20260904133400 20 90 1.6 4.8 0.00 0.00 0.00 96 1012.2
20260904133305 20 90 3.2 6.4 0.00 0.00 0.00 96 1012.2
20260904133229 20 90 3.2 6.4 0.00 0.00 0.00 96 1012.2
20260904133113 20 90 3.2 6.4 0.00 0.00 0.00 96 1012.2
20260904133018 20 90 3.2 6.4 0.00 0.00 0.00 96 1012.2
20260904132922 20 90 3.2 6.4 0.00 0.00 0.00 96 1012.2
20260904132759 20 90 3.2 6.4 0.00 0.00 0.00 96 1012.3
20260904132709 20 90 3.2 8.0 0.00 0.00 0.00 96 1012.3
20260904132613 20 90 3.2 9.7 0.00 0.00 0.00 96 1012.2
20260904132517 20 90 3.2 9.7 0.00 0.00 0.00 96 1012.2
20260904132443 20 90 3.2 9.7 0.00 0.00 0.00 96 1012.3
20260904132300 20 74 3.2 9.7 0.00 0.00 0.00 96 1012.3
20260904132204 20 74 3.2 9.7 0.00 0.00 0.00 96 1012.3
20260904132109 20 74 3.2 9.7 0.00 0.00 0.00 96 1012.3
20260904132018 20 74 4.8 9.7 0.00 0.00 0.00 96 1012.2
20260904131902 20 74 6.4 9.7 0.00 0.00 0.00 96 1012.3
20260904131806 20 67 6.4 9.7 0.00 0.00 0.00 96 1012.3
20260904131711 21 86 4.8 9.7 0.00 0.00 0.00 96 1012.3
20260904131556 21 87 4.8 9.7 0.00 0.00 0.00 96 1012.2
20260904131500 21 88 6.4 9.7 0.00 0.00 0.00 96 1012.2
20260904131409 21 94 6.4 9.7 0.00 0.00 0.00 96 1012.2
20260904131314 21 94 4.8 11.3 0.00 0.00 0.00 96 1012.2
20260904131159 21 107 6.4 11.3 0.00 0.00 0.00 96 1012.1
20260904131103 21 108 4.8 11.3 0.00 0.00 0.00 96 1012.2
20260904131006 21 112 4.8 11.3 0.00 0.00 0.00 96 1012.1
20260904130930 21 110 6.4 11.3 0.00 0.00 0.00 96 1012.1
20260904130759 21 111 6.4 11.3 0.00 0.00 0.00 96 1012.1
20260904130703 21 115 6.4 11.3 0.00 0.00 0.00 96 1012.2
20260904130608 21 95 8.0 11.3 0.00 0.00 0.00 96 1012.2
20260904130513 21 101 8.0 11.3 0.00 0.00 0.00 96 1012.1
20260904130358 21 93 8.0 11.3 0.00 0.00 0.00 96 1012.1
20260904130303 21 95 8.0 11.3 0.00 0.00 0.00 96 1012.1
20260904130212 21 101 6.4 11.3 0.00 0.00 0.00 96 1012.1
20260904130057 21 93 4.8 9.7 0.00 0.00 0.00 96 1012.1
20260904130001 21 105 4.8 9.7 0.00 0.00 0.00 96 1012.1
20260904125906 21 105 4.8 12.9 0.00 0.00 0.00 96 1012.1
20260904125810 21 88 4.8 12.9 0.00 0.00 0.00 96 1012.1
20260904125659 21 94 4.8 12.9 0.00 0.00 0.00 96 1012.1
20260904125604 21 89 4.8 12.9 0.00 0.00 0.00 96 1012.1
20260904125509 21 86 3.2 12.9 0.00 0.00 0.00 96 1012.1
20260904125414 21 86 3.2 12.9 0.00 0.00 0.00 96 1012.1
20260904125319 21 85 4.8 12.9 0.00 0.00 0.00 96 1012.1
20260904125243 21 84 6.4 12.9 0.00 0.00 0.00 95 1012.1
20260904125059 21 82 8.0 12.9 0.00 0.00 0.00 95 1012.0
20260904125009 21 81 8.0 12.9 0.00 0.00 0.00 95 1012.0
20260904124914 21 60 6.4 12.9 0.00 0.00 0.00 95 1012.0
20260904124758 21 85 6.4 11.3 0.00 0.00 0.00 95 1011.9
20260904124702 21 85 4.8 11.3 0.00 0.00 0.00 95 1011.9
20260904124605 21 90 4.8 11.3 0.00 0.00 0.00 95 1011.9
20260904124508 21 77 6.4 11.3 0.00 0.00 0.00 95 1011.9
20260904124418 21 76 6.4 11.3 0.00 0.00 0.00 95 1011.9
20260904124343 21 65 4.8 9.7 0.00 0.00 0.00 95 1011.9
20260904124200 21 111 4.8 9.7 0.00 0.00 0.00 96 1011.9
20260904124125 21 112 4.8 9.7 0.00 0.00 0.00 96 1011.9
20260904124008 21 112 6.4 9.7 0.00 0.00 0.00 96 1011.9
20260904123914 21 113 6.4 9.7 0.00 0.00 0.00 96 1012.0
20260904123758 21 115 4.8 9.7 0.00 0.00 0.00 96 1011.8
20260904123705 21 119 3.2 6.4 0.00 0.00 0.00 96 1011.8
20260904123610 21 119 3.2 6.4 0.00 0.00 0.00 96 1011.8
20260904123515 21 120 3.2 6.4 0.00 0.00 0.00 96 1011.7
20260904123420 21 120 3.2 6.4 0.00 0.00 0.00 96 1011.7
20260904123303 21 120 3.2 6.4 0.00 0.00 0.00 96 1011.6
20260904123208 21 119 3.2 6.4 0.00 0.00 0.00 95 1011.6
20260904123056 21 119 4.8 6.4 0.00 0.00 0.00 96 1011.7
20260904123001 21 119 4.8 6.4 0.00 0.00 0.00 96 1011.6
20260904122905 21 119 4.8 6.4 0.00 0.00 0.00 96 1011.7
20260904122810 21 119 4.8 6.4 0.00 0.00 0.00 95 1011.7
20260904122713 21 119 4.8 6.4 0.00 0.00 0.00 95 1011.7
20260904122558 21 120 4.8 6.4 0.00 0.00 0.00 96 1011.5
20260904122503 21 119 4.8 9.7 0.00 0.00 0.00 96 1011.6
20260904122411 21 121 4.8 9.7 0.00 0.00 0.00 96 1011.6
20260904122256 21 121 4.8 9.7 0.00 0.00 0.00 96 1011.5
20260904122221 21 121 4.8 9.7 0.00 0.00 0.00 96 1011.5
20260904122059 21 124 4.8 9.7 0.00 0.00 0.00 96 1011.4
20260904122004 21 125 4.8 9.7 0.00 0.00 0.00 96 1011.4
20260904121908 21 123 4.8 9.7 0.00 0.00 0.00 96 1011.4
20260904121757 21 123 6.4 9.7 0.00 0.00 0.00 96 1011.4
20260904121721 21 120 4.8 9.7 0.00 0.00 0.00 96 1011.4
20260904121600 21 127 4.8 8.0 0.00 0.00 0.00 96 1011.4
20260904121505 21 128 4.8 8.0 0.00 0.00 0.00 96 1011.4
20260904121409 21 128 4.8 8.0 0.00 0.00 0.00 96 1011.4
20260904121258 21 134 3.2 8.0 0.00 0.00 0.00 96 1011.3
20260904121202 21 134 3.2 8.0 0.00 0.00 0.00 96 1011.4
20260904121108 21 135 3.2 8.0 0.00 0.00 0.00 96 1011.4
20260904121013 21 135 4.8 8.0 0.00 0.00 0.00 96 1011.3
20260904120858 21 135 4.8 8.0 0.00 0.00 0.00 96 1011.4
20260904120802 21 136 3.2 6.4 0.00 0.00 0.00 96 1011.4
20260904120711 21 136 3.2 6.4 0.00 0.00 0.00 96 1011.4
20260904120636 21 136 3.2 6.4 0.00 0.00 0.00 96 1011.4
20260904120519 21 136 4.8 6.4 0.00 0.00 0.00 96 1011.4
20260904120356 21 138 4.8 6.4 0.00 0.00 0.00 96 1011.3
20260904120301 21 138 3.2 6.4 0.00 0.00 0.00 96 1011.4
20260904120226 21 138 3.2 6.4 0.00 0.00 0.00 96 1011.3
20260904120110 21 138 4.8 6.4 0.00 0.00 0.00 96 1011.3
20260904120017 21 138 4.8 6.4 0.00 0.00 0.00 96 1011.4
20260904115856 21 139 4.8 6.4 0.00 0.00 0.00 96 1011.3
20260904115821 21 139 4.8 6.4 0.00 0.00 0.00 96 1011.3
20260904115658 21 143 3.2 4.8 0.00 0.00 0.00 96 1011.3
20260904115603 21 143 3.2 4.8 0.00 0.00 0.00 96 1011.3
20260904115507 21 143 3.2 4.8 0.00 0.00 0.00 96 1011.2
20260904115415 21 143 3.2 4.8 0.00 0.00 0.00 96 1011.2
20260904115259 21 143 3.2 4.8 0.00 0.00 0.00 96 1011.2
20260904115205 21 143 1.6 4.8 0.00 0.00 0.00 96 1011.2
20260904115110 21 143 1.6 3.2 0.00 0.00 0.00 96 1011.2
20260904115014 21 143 1.6 3.2 0.00 0.00 0.00 96 1011.2
20260904114920 21 143 1.6 6.4 0.00 0.00 0.00 96 1011.2
20260904114807 21 143 0.0 6.4 0.00 0.00 0.00 96 1011.2
20260904114711 21 143 1.6 6.4 0.00 0.00 0.00 96 1011.1
20260904114556 21 143 1.6 6.4 0.00 0.00 0.00 96 1011.1
20260904114521 21 143 1.6 6.4 0.00 0.00 0.00 96 1011.1
20260904114359 21 143 1.6 6.4 0.00 0.00 0.00 96 1011.2
20260904114303 21 143 3.2 6.4 0.00 0.00 0.00 96 1011.1
20260904114227 21 143 4.8 6.4 0.00 0.00 0.00 96 1011.1
20260904114115 21 143 4.8 9.7 0.00 0.00 0.00 96 1011.2
20260904114020 21 144 3.2 9.7 0.00 0.00 0.00 96 1011.1
20260904113924 21 145 1.6 9.7 0.00 0.00 0.00 96 1011.1
20260904113827 21 145 1.6 9.7 0.00 0.00 0.00 96 1011.1
20260904113712 21 145 1.6 9.7 0.00 0.00 0.00 96 1011.1
20260904113617 21 145 3.2 9.7 0.00 0.00 0.00 96 1011.1
20260904113521 21 145 3.2 9.7 0.00 0.00 0.00 96 1011.1
20260904113405 21 145 4.8 9.7 0.00 0.00 0.00 96 1011.0
20260904113314 21 145 4.8 9.7 0.00 0.00 0.00 96 1011.0
20260904113239 21 157 4.8 8.0 0.00 0.00 0.00 96 1011.0
20260904113055 21 158 3.2 8.0 0.00 0.00 0.00 96 1010.9
20260904113021 21 158 3.2 8.0 0.00 0.00 0.00 96 1010.9
20260904112858 21 159 3.2 8.0 0.00 0.00 0.00 96 1010.9
20260904112803 21 159 3.2 8.0 0.00 0.00 0.00 96 1010.9
20260904112707 21 158 3.2 8.0 0.00 0.00 0.00 96 1010.9
20260904112557 21 158 3.2 8.0 0.00 0.00 0.00 96 1011.0
20260904112502 21 158 4.8 8.0 0.00 0.00 0.00 96 1011.0
20260904112403 21 157 4.8 8.0 0.00 0.00 0.00 96 1010.9
20260904112309 21 146 3.2 8.0 0.00 0.00 0.00 96 1010.9
20260904112214 21 137 3.2 6.4 0.00 0.00 0.00 96 1010.9
20260904112103 21 137 3.2 6.4 0.00 0.00 0.00 96 1011.0
20260904112008 21 136 3.2 6.4 0.00 0.00 0.00 96 1011.0
20260904111912 21 136 3.2 6.4 0.00 0.00 0.00 96 1010.9
20260904111756 21 136 3.2 6.4 0.00 0.00 0.00 96 1010.9
20260904111701 21 136 3.2 6.4 0.00 0.00 0.00 96 1010.9
20260904111606 21 136 3.2 6.4 0.00 0.00 0.00 96 1010.9
20260904111510 21 133 3.2 6.4 0.00 0.00 0.00 96 1010.9
20260904111359 21 133 3.2 6.4 0.00 0.00 0.00 96 1011.0
20260904111304 21 133 3.2 6.4 0.00 0.00 0.00 96 1010.9
20260904111208 21 128 3.2 6.4 0.00 0.00 0.00 96 1010.9
20260904111113 21 127 1.6 6.4 0.00 0.00 0.00 96 1010.9
20260904110958 21 126 3.2 6.4 0.00 0.00 0.00 96 1011.0
20260904110906 21 126 3.2 6.4 0.00 0.00 0.00 96 1011.0
20260904110810 21 126 3.2 8.0 0.00 0.00 0.00 96 1011.0
20260904110714 21 127 3.2 8.0 0.00 0.00 0.00 96 1011.1
20260904110619 21 126 1.6 8.0 0.00 0.00 0.00 96 1011.0
20260904110457 21 126 0.0 8.0 0.00 0.00 0.00 96 1011.0
20260904110421 21 126 0.0 8.0 0.00 0.00 0.00 96 1011.0
20260904110259 21 126 1.6 8.0 0.00 0.00 0.00 96 1011.0
20260904110208 21 126 4.8 8.0 0.00 0.00 0.00 96 1011.0
20260904110113 21 126 6.4 11.3 0.00 0.00 0.00 96 1011.1
20260904105958 21 126 6.4 11.3 0.00 0.00 0.00 96 1011.1
20260904105902 21 113 6.4 11.3 0.00 0.00 0.00 96 1011.2
20260904105807 21 138 4.8 11.3 0.00 0.00 0.00 96 1011.2
20260904105656 21 146 3.2 11.3 0.00 0.00 0.00 96 1011.1
20260904105601 21 148 3.2 11.3 0.00 0.00 0.00 96 1011.1
20260904105505 21 148 3.2 11.3 0.00 0.00 0.00 96 1011.1
20260904105410 21 152 4.8 11.3 0.00 0.00 0.00 96 1011.1
20260904105315 21 153 6.4 11.3 0.00 0.00 0.00 96 1011.1
20260904105220 21 132 4.8 8.0 0.00 0.00 0.00 96 1011.1
20260904105104 21 134 4.8 8.0 0.00 0.00 0.00 96 1011.1
20260904105012 21 132 4.8 8.0 0.00 0.00 0.00 96 1011.1
20260904104915 21 132 4.8 11.3 0.00 0.00 0.00 96 1011.1
20260904104800 21 134 4.8 14.5 0.00 0.00 0.00 96 1011.0
20260904104705 21 131 4.8 14.5 0.00 0.00 0.00 96 1011.0
20260904104610 21 143 3.2 14.5 0.00 0.00 0.00 96 1011.0
20260904104515 21 107 1.6 14.5 0.00 0.00 0.00 96 1011.0
20260904104403 21 107 3.2 14.5 0.00 0.00 0.00 96 1011.1
20260904104308 21 107 4.8 14.5 0.00 0.00 0.00 96 1011.1
20260904104213 21 106 6.4 14.5 0.00 0.00 0.00 96 1011.1
20260904104118 21 128 9.7 14.5 0.00 0.00 0.00 96 1011.1
20260904104001 21 120 8.0 17.7 0.00 0.00 0.00 96 1011.1
20260904103925 21 117 6.4 17.7 0.00 0.00 0.00 96 1011.1
20260904103829 21 119 4.8 17.7 0.00 0.00 0.00 96 1011.1
20260904103717 21 112 4.8 17.7 0.00 0.00 0.00 96 1011.1
20260904103642 21 136 4.8 17.7 0.00 0.00 0.00 96 1011.0
20260904103458 21 135 6.4 17.7 0.00 0.00 0.00 96 1011.1
20260904103404 21 139 9.7 17.7 0.00 0.00 0.00 96 1011.1
20260904103329 21 108 9.7 19.3 0.00 0.00 0.00 96 1011.1
20260904103212 21 141 8.0 19.3 0.00 0.00 0.00 96 1011.1
20260904103058 21 122 6.4 19.3 0.00 0.00 0.00 96 1011.1
20260904103007 21 127 6.4 19.3 0.00 0.00 0.00 96 1011.1
20260904102911 21 115 6.4 19.3 0.00 0.00 0.00 96 1011.1
20260904102836 21 108 6.4 19.3 0.00 0.00 0.00 96 1011.1
20260904102719 21 117 8.0 19.3 0.00 0.00 0.00 96 1011.1
20260904102556 21 110 11.3 19.3 0.00 0.00 0.00 96 1011.2
20260904102501 21 113 8.0 19.3 0.00 0.00 0.00 96 1011.1
20260904102425 21 109 6.4 11.3 0.00 0.00 0.00 96 1011.1
20260904102313 21 143 6.4 11.3 0.00 0.00 0.00 96 1011.1
20260904102238 21 144 6.4 11.3 0.00 0.00 0.00 96 1011.0
20260904102142 21 169 6.4 11.3 0.00 0.00 0.00 96 1011.0
20260904101959 21 136 6.4 11.3 0.00 0.00 0.00 96 1011.0
20260904101903 22 160 6.4 11.3 0.00 0.00 0.00 96 1011.0
20260904101809 22 185 6.4 11.3 0.00 0.00 0.00 96 1011.0
20260904101657 22 127 6.4 11.3 0.00 0.00 0.00 96 1011.0
20260904101601 22 126 6.4 12.9 0.00 0.00 0.00 96 1011.0
20260904101506 22 121 6.4 12.9 0.00 0.00 0.00 96 1011.0
20260904101430 22 130 4.8 12.9 0.00 0.00 0.00 96 1010.9
20260904101334 22 132 4.8 12.9 0.00 0.00 0.00 96 1011.0
20260904101219 22 157 4.8 12.9 0.00 0.00 0.00 96 1010.9
20260904101056 22 157 3.2 12.9 0.00 0.00 0.00 96 1010.9
20260904101004 22 157 6.4 12.9 0.00 0.00 0.00 96 1010.9
20260904100909 22 116 8.0 12.9 0.00 0.00 0.00 96 1010.9
20260904100813 22 131 9.7 12.9 0.00 0.00 0.00 96 1011.0
20260904100658 22 103 9.7 12.9 0.00 0.00 0.00 96 1011.0
20260904100603 22 119 8.0 12.9 0.00 0.00 0.00 96 1011.0
20260904100507 22 117 4.8 11.3 0.00 0.00 0.00 96 1011.0
20260904100412 22 133 4.8 12.9 0.00 0.00 0.00 96 1010.9
20260904100322 22 132 6.4 12.9 0.00 0.00 0.00 96 1011.0
20260904100159 22 121 4.8 12.9 0.00 0.00 0.00 96 1010.9
20260904100104 22 160 4.8 12.9 0.00 0.00 0.00 97 1010.9
20260904100008 22 163 4.8 12.9 0.00 0.00 0.00 97 1010.9
20260904095909 22 155 3.2 12.9 0.00 0.00 0.00 97 1010.9
20260904095834 22 151 3.2 12.9 0.00 0.00 0.00 97 1010.9
20260904095702 22 137 8.0 12.9 0.00 0.00 0.00 97 1011.0
20260904095606 22 136 9.7 12.9 0.00 0.00 0.00 97 1011.0
20260904095510 22 126 8.0 12.9 0.00 0.00 0.00 97 1011.0
20260904095436 22 124 8.0 12.9 0.00 0.00 0.00 97 1011.1
20260904095319 22 116 6.4 9.7 0.00 0.00 0.00 97 1011.1
20260904095157 22 133 4.8 9.7 0.00 0.00 0.00 97 1011.0
20260904095102 22 183 3.2 11.3 0.00 0.00 0.00 97 1010.9
20260904095010 22 184 4.8 11.3 0.00 0.00 0.00 97 1010.9
20260904094856 22 184 4.8 11.3 0.00 0.00 0.00 97 1010.8
20260904094821 22 183 4.8 11.3 0.00 0.00 0.00 97 1010.8
20260904094658 22 160 3.2 11.3 0.00 0.00 0.00 97 1010.9
20260904094603 22 117 3.2 11.3 0.00 0.00 0.00 97 1011.0
20260904094526 22 115 4.8 11.3 0.00 0.00 0.00 96 1011.1
20260904094413 22 116 6.4 11.3 0.00 0.00 0.00 96 1011.1
20260904094319 22 117 8.0 11.3 0.00 0.00 0.00 96 1011.1
20260904094156 22 107 6.4 11.3 0.00 0.00 0.00 97 1011.1
20260904094101 22 114 4.8 6.4 0.00 0.00 0.00 96 1011.0
20260904094007 22 110 3.2 6.4 0.00 0.00 0.00 96 1011.0
20260904093931 22 110 1.6 9.7 0.00 0.00 0.00 96 1011.0
20260904093759 22 110 1.6 9.7 0.00 0.00 0.00 96 1010.9
20260904093704 22 110 1.6 9.7 0.00 0.00 0.00 96 1010.9
20260904093609 22 110 1.6 9.7 0.00 0.00 0.00 96 1010.9
20260904093514 22 110 1.6 9.7 0.00 0.00 0.00 96 1010.9
20260904093357 22 110 3.2 9.7 0.00 0.00 0.00 96 1011.0
20260904093302 22 110 4.8 9.7 0.00 0.00 0.00 96 1011.1
20260904093207 22 110 6.4 9.7 0.00 0.00 0.00 96 1011.1
20260904093136 22 111 6.4 9.7 0.00 0.00 0.00 96 1011.1
20260904092959 22 113 4.8 9.7 0.00 0.00 0.00 96 1011.2
20260904092924 22 117 4.8 9.7 0.00 0.00 0.00 96 1011.1
20260904092808 22 108 4.8 9.7 0.00 0.00 0.00 96 1011.1
20260904092713 22 107 4.8 9.7 0.00 0.00 0.00 96 1011.1
20260904092557 22 107 3.2 6.4 0.00 0.00 0.00 96 1011.1
20260904092507 22 107 1.6 6.4 0.00 0.00 0.00 96 1011.1
20260904092432 22 107 1.6 9.7 0.00 0.00 0.00 96 1011.0
20260904092315 22 107 0.0 9.7 0.00 0.00 0.00 96 1011.0
20260904092240 22 107 0.0 9.7 0.00 0.00 0.00 96 1010.9
20260904092057 22 107 0.0 9.7 0.00 0.00 0.00 96 1010.9
20260904092002 22 107 1.6 9.7 0.00 0.00 0.00 96 1011.0
20260904091907 22 107 3.2 9.7 0.00 0.00 0.00 96 1011.0
20260904091756 22 107 4.8 9.7 0.00 0.00 0.00 96 1011.2
20260904091721 22 107 6.4 9.7 0.00 0.00 0.00 96 1011.2
20260904091558 22 111 6.4 9.7 0.00 0.00 0.00 96 1011.2
20260904091504 22 103 6.4 11.3 0.00 0.00 0.00 96 1011.1
20260904091408 22 114 4.8 12.9 0.00 0.00 0.00 96 1011.0
20260904091308 22 144 1.6 14.5 0.00 0.00 0.00 96 1011.0
20260904091156 22 145 1.6 14.5 0.00 0.00 0.00 96 1010.9
20260904091121 22 145 3.2 14.5 0.00 0.00 0.00 96 1010.8
20260904091005 22 145 3.2 14.5 0.00 0.00 0.00 96 1010.9
20260904090907 22 119 4.8 14.5 0.00 0.00 0.00 96 1010.9
20260904090812 22 115 4.8 14.5 0.00 0.00 0.00 96 1010.9
20260904090658 22 119 8.0 14.5 0.00 0.00 0.00 96 1011.1
20260904090623 22 98 9.7 14.5 0.00 0.00 0.00 96 1011.1
20260904090511 22 78 11.3 14.5 0.00 0.00 0.00 96 1011.1
20260904090355 22 96 9.7 14.5 0.00 0.00 0.00 96 1011.1
20260904090319 22 94 6.4 16.1 0.00 0.00 0.00 96 1011.1
20260904090156 22 117 3.2 20.9 0.00 0.00 0.00 96 1010.9
20260904090120 22 117 0.0 20.9 0.00 0.00 0.00 95 1010.9
20260904090023 22 117 0.0 20.9 0.00 0.00 0.00 95 1010.8
20260904085905 22 117 1.6 20.9 0.00 0.00 0.00 95 1010.8
20260904085814 22 117 4.8 20.9 0.00 0.00 0.00 95 1010.8
20260904085721 22 117 8.0 20.9 0.00 0.00 0.00 95 1010.8
20260904085559 22 112 11.3 20.9 0.00 0.00 0.00 95 1010.9
20260904085504 22 82 14.5 20.9 0.00 0.00 0.00 95 1010.9
20260904085409 22 80 14.5 20.9 0.00 0.00 0.00 96 1010.9
20260904085313 22 80 12.9 17.7 0.00 0.00 0.00 95 1010.8
20260904085242 22 85 11.3 14.5 0.00 0.00 0.00 96 1010.9
20260904085058 22 104 8.0 11.3 0.00 0.00 0.00 95 1010.7
20260904085003 22 117 6.4 9.7 0.00 0.00 0.00 95 1010.6
20260904084927 22 129 6.4 8.0 0.00 0.00 0.00 95 1010.6
20260904084831 22 159 4.8 8.0 0.00 0.00 0.00 95 1010.5
20260904084656 22 197 3.2 4.8 0.00 0.00 0.00 95 1010.4
20260904084600 22 217 1.6 4.8 0.00 0.00 0.00 95 1010.4
20260904084530 22 217 1.6 3.2 0.00 0.00 0.00 95 1010.4
20260904084414 22 217 0.0 3.2 0.00 0.00 0.00 95 1010.4
20260904084318 22 217 0.0 3.2 0.00 0.00 0.00 96 1010.4
20260904084202 22 217 0.0 4.8 0.00 0.00 0.00 96 1010.3
20260904084106 22 217 0.0 4.8 0.00 0.00 0.00 96 1010.3
20260904084010 22 217 0.0 4.8 0.00 0.00 0.00 95 1010.3
20260904083859 22 217 0.0 4.8 0.00 0.00 0.00 95 1010.2
20260904083804 22 217 1.6 4.8 0.00 0.00 0.00 95 1010.2
20260904083709 22 217 1.6 4.8 0.00 0.00 0.00 95 1010.2
20260904083633 22 217 1.6 4.8 0.00 0.00 0.00 95 1010.2
20260904083457 22 217 3.2 4.8 0.00 0.00 0.00 95 1010.2
20260904083402 22 217 3.2 6.4 0.00 0.00 0.00 95 1010.2
20260904083327 22 217 3.2 6.4 0.00 0.00 0.00 95 1010.2
20260904083231 22 217 3.2 6.4 0.00 0.00 0.00 95 1010.1
20260904083119 22 217 3.2 6.4 0.00 0.00 0.00 95 1010.1
20260904082956 22 217 3.2 6.4 0.00 0.00 0.00 95 1010.1
20260904082901 22 217 3.2 6.4 0.00 0.00 0.00 95 1010.2
20260904082807 22 217 3.2 6.4 0.00 0.00 0.00 95 1010.2
20260904082712 22 218 3.2 6.4 0.00 0.00 0.00 95 1010.2
20260904082600 22 218 3.2 6.4 0.00 0.00 0.00 95 1010.2
20260904082506 22 218 3.2 6.4 0.00 0.00 0.00 95 1010.2
20260904082411 22 218 3.2 6.4 0.00 0.00 0.00 95 1010.1
20260904082256 22 218 3.2 6.4 0.00 0.00 0.00 95 1010.1
20260904082200 22 218 3.2 6.4 0.00 0.00 0.00 95 1010.2
20260904082105 22 218 4.8 6.4 0.00 0.00 0.00 95 1010.2
20260904082014 22 218 3.2 6.4 0.00 0.00 0.00 95 1010.1
20260904081919 22 218 4.8 6.4 0.00 0.00 0.00 95 1010.1
20260904081756 22 218 4.8 6.4 0.00 0.00 0.00 95 1010.1
20260904081722 22 218 4.8 6.4 0.00 0.00 0.00 95 1010.1
20260904081606 22 218 4.8 6.4 0.00 0.00 0.00 95 1010.1
20260904081530 22 218 4.8 6.4 0.00 0.00 0.00 95 1010.2
20260904081434 22 218 4.8 4.8 0.00 0.00 0.00 95 1010.2
20260904081319 22 218 4.8 4.8 0.00 0.00 0.00 94 1010.2
20260904081206 22 218 4.8 4.8 0.00 0.00 0.00 94 1010.2
20260904081131 22 218 3.2 4.8 0.00 0.00 0.00 94 1010.2
20260904080956 22 218 3.2 4.8 0.00 0.00 0.00 94 1010.2
20260904080921 22 218 3.2 4.8 0.00 0.00 0.00 94 1010.1
20260904080805 22 218 3.2 4.8 0.00 0.00 0.00 94 1010.2
20260904080709 22 218 3.2 4.8 0.00 0.00 0.00 94 1010.2
20260904080634 22 218 3.2 4.8 0.00 0.00 0.00 94 1010.2
20260904080522 22 218 3.2 4.8 0.00 0.00 0.00 94 1010.3
20260904080358 22 218 3.2 4.8 0.00 0.00 0.00 94 1010.2
20260904080304 22 218 3.2 3.2 0.00 0.00 0.00 94 1010.2
20260904080206 22 218 3.2 3.2 0.00 0.00 0.00 94 1010.2
20260904080110 22 218 1.6 3.2 0.00 0.00 0.00 94 1010.2
20260904075956 22 218 1.6 4.8 0.00 0.00 0.00 94 1010.2
20260904075920 22 218 3.2 4.8 0.00 0.00 0.00 94 1010.2
20260904075807 22 218 1.6 4.8 0.00 0.00 0.00 94 1010.2
20260904075713 22 218 1.6 4.8 0.00 0.00 0.00 94 1010.3
20260904075557 22 218 1.6 4.8 0.00 0.00 0.00 94 1010.3
20260904075503 22 218 1.6 4.8 0.00 0.00 0.00 94 1010.2
20260904075407 22 218 3.2 4.8 0.00 0.00 0.00 94 1010.2
20260904075333 22 218 1.6 4.8 0.00 0.00 0.00 93 1010.2
20260904075201 22 218 3.2 4.8 0.00 0.00 0.00 93 1010.2
20260904075106 22 218 3.2 4.8 0.00 0.00 0.00 93 1010.2
20260904075010 22 218 3.2 4.8 0.00 0.00 0.00 93 1010.2
20260904074934 22 218 3.2 4.8 0.00 0.00 0.00 94 1010.1
20260904074817 22 218 3.2 4.8 0.00 0.00 0.00 94 1010.2
20260904074742 22 218 1.6 4.8 0.00 0.00 0.00 94 1010.2
20260904074558 22 218 1.6 4.8 0.00 0.00 0.00 94 1010.2
20260904074508 22 218 1.6 4.8 0.00 0.00 0.00 94 1010.2
20260904074412 22 218 1.6 6.4 0.00 0.00 0.00 94 1010.1
20260904074258 22 218 1.6 6.4 0.00 0.00 0.00 94 1010.1
20260904074203 22 218 1.6 6.4 0.00 0.00 0.00 94 1010.1
20260904074107 22 218 1.6 6.4 0.00 0.00 0.00 94 1010.1
20260904074033 22 218 3.2 6.4 0.00 0.00 0.00 94 1010.2
20260904073900 22 218 4.8 6.4 0.00 0.00 0.00 94 1010.1
20260904073806 22 218 4.8 6.4 0.00 0.00 0.00 94 1010.1
20260904073730 22 218 4.8 6.4 0.00 0.00 0.00 94 1010.2
20260904073615 22 218 4.8 6.4 0.00 0.00 0.00 94 1010.1
20260904073519 22 219 4.8 6.4 0.00 0.00 0.00 94 1010.2
20260904073357 22 219 4.8 4.8 0.00 0.00 0.00 94 1010.2
20260904073305 22 219 3.2 4.8 0.00 0.00 0.00 93 1010.2
20260904073211 22 219 3.2 6.4 0.00 0.00 0.00 93 1010.3
20260904073115 22 219 3.2 6.4 0.00 0.00 0.00 93 1010.2
20260904072959 22 219 3.2 6.4 0.00 0.00 0.00 93 1010.2
20260904072924 22 219 3.2 6.4 0.00 0.00 0.00 93 1010.3
20260904072808 22 219 3.2 6.4 0.00 0.00 0.00 93 1010.3
20260904072656 22 219 3.2 6.4 0.00 0.00 0.00 93 1010.2
20260904072601 22 219 3.2 6.4 0.00 0.00 0.00 93 1010.2
20260904072506 23 219 4.8 6.4 0.00 0.00 0.00 93 1010.2
20260904072410 23 219 3.2 6.4 0.00 0.00 0.00 93 1010.3
20260904072335 23 220 3.2 4.8 0.00 0.00 0.00 93 1010.2
20260904072219 23 220 4.8 4.8 0.00 0.00 0.00 93 1010.3
20260904072103 23 219 4.8 6.4 0.00 0.00 0.00 93 1010.2
20260904072013 23 220 4.8 6.4 0.00 0.00 0.00 93 1010.2
20260904071857 23 220 4.8 6.4 0.00 0.00 0.00 93 1010.2
20260904071803 23 220 3.2 8.0 0.00 0.00 0.00 93 1010.3
20260904071707 23 220 3.2 8.0 0.00 0.00 0.00 93 1010.3
20260904071612 23 220 3.2 8.0 0.00 0.00 0.00 93 1010.2
20260904071457 23 220 3.2 8.0 0.00 0.00 0.00 93 1010.2
20260904071425 23 221 4.8 8.0 0.00 0.00 0.00 93 1010.2
20260904071310 23 221 4.8 8.0 0.00 0.00 0.00 93 1010.2
20260904071235 23 221 4.8 8.0 0.00 0.00 0.00 93 1010.2
20260904071119 23 221 4.8 8.0 0.00 0.00 0.00 93 1010.1
20260904071003 23 221 4.8 8.0 0.00 0.00 0.00 93 1010.2
20260904070907 23 221 4.8 8.0 0.00 0.00 0.00 93 1010.2
20260904070812 23 221 4.8 8.0 0.00 0.00 0.00 93 1010.2
20260904070721 23 221 4.8 8.0 0.00 0.00 0.00 93 1010.1
20260904070558 23 221 4.8 8.0 0.00 0.00 0.00 93 1010.2
20260904070524 23 221 4.8 8.0 0.00 0.00 0.00 93 1010.2
20260904070407 23 221 4.8 8.0 0.00 0.00 0.00 93 1010.2
20260904070313 23 221 4.8 9.7 0.00 0.00 0.00 93 1010.2
20260904070158 23 221 6.4 9.7 0.00 0.00 0.00 93 1010.2
20260904070106 23 221 6.4 9.7 0.00 0.00 0.00 93 1010.2
20260904070011 23 219 6.4 9.7 0.00 0.00 0.00 93 1010.2
20260904065936 23 234 6.4 9.7 0.00 0.00 0.00 93 1010.2
20260904065800 23 216 6.4 9.7 0.00 0.00 0.00 93 1010.3
20260904065704 23 216 6.4 9.7 0.00 0.00 0.00 93 1010.3
20260904065628 23 215 6.4 9.7 0.00 0.00 0.00 93 1010.3
20260904065512 23 216 6.4 9.7 0.00 0.00 0.00 93 1010.3
20260904065401 23 223 6.4 9.7 0.00 0.00 0.00 93 1010.3
20260904065307 23 224 6.4 9.7 0.00 0.00 0.00 93 1010.3
20260904065210 23 221 6.4 8.0 0.00 0.00 0.00 93 1010.2
20260904065056 23 224 6.4 8.0 0.00 0.00 0.00 93 1010.4
20260904065020 23 224 4.8 8.0 0.00 0.00 0.00 93 1010.4
20260904064859 23 224 4.8 8.0 0.00 0.00 0.00 93 1010.4
20260904064807 23 224 4.8 8.0 0.00 0.00 0.00 93 1010.4
20260904064712 23 224 4.8 8.0 0.00 0.00 0.00 93 1010.4
20260904064616 23 223 4.8 8.0 0.00 0.00 0.00 93 1010.3
20260904064542 23 224 4.8 8.0 0.00 0.00 0.00 93 1010.4
20260904064358 23 224 4.8 8.0 0.00 0.00 0.00 93 1010.4
20260904064304 23 225 6.4 8.0 0.00 0.00 0.00 93 1010.2
20260904064212 23 225 6.4 8.0 0.00 0.00 0.00 93 1010.2
20260904064136 23 205 4.8 8.0 0.00 0.00 0.00 93 1010.3
20260904064019 23 205 4.8 8.0 0.00 0.00 0.00 93 1010.3
20260904063856 23 202 4.8 6.4 0.00 0.00 0.00 93 1010.3
20260904063821 23 202 4.8 8.0 0.00 0.00 0.00 93 1010.3
20260904063704 23 202 4.8 8.0 0.00 0.00 0.00 93 1010.3
20260904063608 23 202 4.8 8.0 0.00 0.00 0.00 93 1010.3
20260904063458 23 202 4.8 8.0 0.00 0.00 0.00 93 1010.4
20260904063402 23 202 4.8 11.3 0.00 0.00 0.00 92 1010.4
20260904063327 23 202 4.8 11.3 0.00 0.00 0.00 92 1010.4
20260904063211 23 202 4.8 11.3 0.00 0.00 0.00 92 1010.4
20260904063116 23 201 6.4 11.3 0.00 0.00 0.00 92 1010.4
20260904063040 23 200 4.8 11.3 0.00 0.00 0.00 92 1010.4
20260904062857 23 200 4.8 11.3 0.00 0.00 0.00 93 1010.4
20260904062805 23 200 6.4 11.3 0.00 0.00 0.00 93 1010.4
20260904062711 23 199 6.4 11.3 0.00 0.00 0.00 92 1010.4
20260904062614 23 198 6.4 11.3 0.00 0.00 0.00 92 1010.4
20260904062459 23 212 6.4 9.7 0.00 0.00 0.00 93 1010.4
20260904062405 23 213 6.4 9.7 0.00 0.00 0.00 92 1010.5
20260904062309 23 211 6.4 9.7 0.00 0.00 0.00 93 1010.5
20260904062158 23 213 6.4 9.7 0.00 0.00 0.00 92 1010.4
20260904062104 23 211 6.4 8.0 0.00 0.00 0.00 92 1010.4
20260904062008 23 211 6.4 8.0 0.00 0.00 0.00 92 1010.4
20260904061913 23 194 6.4 8.0 0.00 0.00 0.00 92 1010.4
20260904061817 23 194 6.4 8.0 0.00 0.00 0.00 92 1010.3
20260904061701 23 192 6.4 8.0 0.00 0.00 0.00 92 1010.3
20260904061610 23 192 4.8 8.0 0.00 0.00 0.00 92 1010.3
20260904061515 23 184 4.8 8.0 0.00 0.00 0.00 92 1010.4
20260904061359 23 184 4.8 8.0 0.00 0.00 0.00 92 1010.4
20260904061304 23 184 4.8 8.0 0.00 0.00 0.00 92 1010.5
20260904061210 23 182 4.8 8.0 0.00 0.00 0.00 91 1010.5
20260904061114 23 182 4.8 8.0 0.00 0.00 0.00 91 1010.5
20260904061022 23 182 4.8 8.0 0.00 0.00 0.00 91 1010.5
20260904060906 23 182 4.8 8.0 0.00 0.00 0.00 91 1010.5
20260904060811 23 182 6.4 8.0 0.00 0.00 0.00 91 1010.5
20260904060656 23 182 6.4 8.0 0.00 0.00 0.00 92 1010.5
20260904060621 23 182 6.4 8.0 0.00 0.00 0.00 92 1010.5
20260904060457 23 180 4.8 8.0 0.00 0.00 0.00 92 1010.5
20260904060406 23 180 4.8 8.0 0.00 0.00 0.00 92 1010.5
20260904060331 23 177 4.8 8.0 0.00 0.00 0.00 92 1010.5
20260904060235 23 176 4.8 8.0 0.00 0.00 0.00 92 1010.5
20260904060059 23 176 4.8 8.0 0.00 0.00 0.00 92 1010.6
20260904060004 23 177 3.2 8.0 0.00 0.00 0.00 92 1010.4
20260904055909 23 176 3.2 8.0 0.00 0.00 0.00 92 1010.4
20260904055814 23 176 3.2 8.0 0.00 0.00 0.00 92 1010.5
20260904055703 23 176 4.8 8.0 0.00 0.00 0.00 92 1010.4
20260904055609 23 175 3.2 8.0 0.00 0.00 0.00 92 1010.4
20260904055533 23 175 3.2 8.0 0.00 0.00 0.00 92 1010.5
20260904055357 23 189 4.8 8.0 0.00 0.00 0.00 92 1010.5
20260904055301 23 190 4.8 8.0 0.00 0.00 0.00 92 1010.5
20260904055206 23 194 3.2 8.0 0.00 0.00 0.00 92 1010.5
20260904055056 23 194 4.8 8.0 0.00 0.00 0.00 92 1010.5
20260904055021 23 195 4.8 8.0 0.00 0.00 0.00 92 1010.5
20260904054904 23 195 4.8 8.0 0.00 0.00 0.00 92 1010.4
20260904054809 23 196 4.8 11.3 0.00 0.00 0.00 92 1010.4
20260904054734 23 200 6.4 11.3 0.00 0.00 0.00 92 1010.4
20260904054618 23 200 6.4 11.3 0.00 0.00 0.00 91 1010.4
20260904054456 23 200 4.8 11.3 0.00 0.00 0.00 91 1010.5
20260904054404 23 200 4.8 11.3 0.00 0.00 0.00 91 1010.5
20260904054309 23 200 6.4 11.3 0.00 0.00 0.00 91 1010.5
20260904054213 23 200 6.4 11.3 0.00 0.00 0.00 91 1010.4
20260904054057 23 198 8.0 11.3 0.00 0.00 0.00 91 1010.3
20260904054002 23 198 8.0 11.3 0.00 0.00 0.00 91 1010.3
20260904053907 23 199 8.0 11.3 0.00 0.00 0.00 91 1010.3
20260904053757 23 198 8.0 11.3 0.00 0.00 0.00 91 1010.4
20260904053701 23 186 8.0 11.3 0.00 0.00 0.00 91 1010.3
20260904053627 23 186 8.0 11.3 0.00 0.00 0.00 90 1010.3
20260904053531 23 182 8.0 11.3 0.00 0.00 0.00 90 1010.3
20260904053414 23 186 6.4 8.0 0.00 0.00 0.00 90 1010.4
20260904053259 23 185 6.4 8.0 0.00 0.00 0.00 90 1010.4
20260904053203 23 185 6.4 8.0 0.00 0.00 0.00 90 1010.4
20260904053112 23 185 6.4 8.0 0.00 0.00 0.00 90 1010.4
20260904052957 23 184 4.8 8.0 0.00 0.00 0.00 90 1010.5
20260904052903 23 184 4.8 8.0 0.00 0.00 0.00 91 1010.4
20260904052807 23 184 3.2 8.0 0.00 0.00 0.00 91 1010.4
20260904052712 23 182 3.2 11.3 0.00 0.00 0.00 91 1010.5
20260904052601 23 182 3.2 11.3 0.00 0.00 0.00 91 1010.5
20260904052506 23 182 3.2 11.3 0.00 0.00 0.00 91 1010.5
20260904052411 23 181 3.2 11.3 0.00 0.00 0.00 91 1010.5
20260904052256 23 181 4.8 12.9 0.00 0.00 0.00 90 1010.4
20260904052201 23 181 6.4 14.5 0.00 0.00 0.00 90 1010.4
20260904052125 23 193 6.4 14.5 0.00 0.00 0.00 90 1010.4
20260904052009 23 199 8.0 14.5 0.00 0.00 0.00 90 1010.4
20260904051937 23 201 8.0 14.5 0.00 0.00 0.00 90 1010.4
20260904051841 23 194 8.0 14.5 0.00 0.00 0.00 90 1010.4
20260904051658 23 200 9.7 14.5 0.00 0.00 0.00 90 1010.5
20260904051604 23 196 9.7 14.5 0.00 0.00 0.00 90 1010.4
20260904051508 23 209 9.7 14.5 0.00 0.00 0.00 90 1010.4
20260904051413 23 200 9.7 14.5 0.00 0.00 0.00 90 1010.4
20260904051301 23 194 8.0 14.5 0.00 0.00 0.00 90 1010.3
20260904051225 23 204 6.4 11.3 0.00 0.00 0.00 90 1010.4
20260904051109 23 212 4.8 11.3 0.00 0.00 0.00 90 1010.4
20260904051014 23 212 4.8 11.3 0.00 0.00 0.00 90 1010.4
20260904050859 23 212 6.4 11.3 0.00 0.00 0.00 90 1010.4
20260904050804 23 213 6.4 11.3 0.00 0.00 0.00 90 1010.4
20260904050709 23 213 8.0 11.3 0.00 0.00 0.00 90 1010.4
20260904050558 23 198 8.0 11.3 0.00 0.00 0.00 90 1010.4
20260904050503 23 202 8.0 11.3 0.00 0.00 0.00 90 1010.3
20260904050408 23 201 8.0 11.3 0.00 0.00 0.00 89 1010.3
20260904050312 23 199 8.0 11.3 0.00 0.00 0.00 89 1010.4
20260904050217 23 187 8.0 11.3 0.00 0.00 0.00 89 1010.4
20260904050100 23 173 8.0 11.3 0.00 0.00 0.00 89 1010.3
20260904050008 23 190 8.0 11.3 0.00 0.00 0.00 89 1010.3
20260904045914 23 186 8.0 9.7 0.00 0.00 0.00 89 1010.3
20260904045819 23 167 6.4 9.7 0.00 0.00 0.00 89 1010.4
20260904045702 23 182 4.8 9.7 0.00 0.00 0.00 89 1010.4
20260904045625 24 172 4.8 6.4 0.00 0.00 0.00 89 1010.4
20260904045529 24 172 4.8 8.0 0.00 0.00 0.00 89 1010.4
20260904045413 24 169 4.8 8.0 0.00 0.00 0.00 89 1010.4
20260904045322 24 169 4.8 8.0 0.00 0.00 0.00 89 1010.3
20260904045226 24 170 4.8 8.0 0.00 0.00 0.00 89 1010.3
20260904045110 24 171 4.8 8.0 0.00 0.00 0.00 89 1010.3
20260904045014 24 171 3.2 8.0 0.00 0.00 0.00 89 1010.4
20260904044919 24 171 1.6 8.0 0.00 0.00 0.00 88 1010.4
20260904044803 24 171 1.6 8.0 0.00 0.00 0.00 88 1010.3
20260904044708 24 171 3.2 8.0 0.00 0.00 0.00 88 1010.4
20260904044616 24 171 3.2 8.0 0.00 0.00 0.00 88 1010.4
20260904044500 24 171 3.2 8.0 0.00 0.00 0.00 88 1010.4
20260904044405 24 171 4.8 8.0 0.00 0.00 0.00 88 1010.4
20260904044309 24 173 6.4 9.7 0.00 0.00 0.00 88 1010.4
20260904044215 24 173 6.4 9.7 0.00 0.00 0.00 88 1010.4
20260904044119 24 182 4.8 9.7 0.00 0.00 0.00 88 1010.3
20260904044004 24 184 4.8 9.7 0.00 0.00 0.00 88 1010.3
20260904043912 24 184 4.8 9.7 0.00 0.00 0.00 88 1010.3
20260904043819 24 182 4.8 9.7 0.00 0.00 0.00 88 1010.4
20260904043656 24 184 4.8 9.7 0.00 0.00 0.00 88 1010.3
20260904043620 24 184 6.4 9.7 0.00 0.00 0.00 88 1010.3
20260904043504 24 186 6.4 9.7 0.00 0.00 0.00 88 1010.3
20260904043429 24 187 6.4 9.7 0.00 0.00 0.00 88 1010.3
20260904043256 24 179 6.4 9.7 0.00 0.00 0.00 88 1010.4
20260904043221 24 177 6.4 9.7 0.00 0.00 0.00 88 1010.4
20260904043104 24 172 4.8 9.7 0.00 0.00 0.00 88 1010.4
20260904043009 24 178 3.2 9.7 0.00 0.00 0.00 88 1010.4
20260904042913 24 178 4.8 9.7 0.00 0.00 0.00 88 1010.4
20260904042758 24 178 6.4 9.7 0.00 0.00 0.00 87 1010.3
20260904042723 24 170 6.4 9.7 0.00 0.00 0.00 87 1010.3
20260904042626 24 169 6.4 9.7 0.00 0.00 0.00 87 1010.3
20260904042534 24 170 6.4 9.7 0.00 0.00 0.00 87 1010.3
20260904042358 24 170 6.4 9.7 0.00 0.00 0.00 87 1010.3
20260904042306 24 190 6.4 9.7 0.00 0.00 0.00 87 1010.3
20260904042208 24 192 8.0 9.7 0.00 0.00 0.00 87 1010.2
20260904042112 24 171 6.4 8.0 0.00 0.00 0.00 86 1010.2
20260904041958 24 168 6.4 8.0 0.00 0.00 0.00 86 1010.2
20260904041906 25 168 4.8 8.0 0.00 0.00 0.00 86 1010.2
20260904041810 25 168 4.8 9.7 0.00 0.00 0.00 86 1010.2
20260904041735 25 168 6.4 9.7 0.00 0.00 0.00 86 1010.2
20260904041639 25 168 6.4 9.7 0.00 0.00 0.00 86 1010.2
20260904041455 25 167 6.4 9.7 0.00 0.00 0.00 86 1010.2
20260904041420 25 167 4.8 9.7 0.00 0.00 0.00 86 1010.2
20260904041257 25 159 4.8 9.7 0.00 0.00 0.00 86 1010.1
20260904041206 25 159 4.8 9.7 0.00 0.00 0.00 86 1010.2
20260904041112 25 159 6.4 9.7 0.00 0.00 0.00 86 1010.2
20260904040957 25 159 4.8 9.7 0.00 0.00 0.00 86 1010.3
20260904040921 25 165 4.8 9.7 0.00 0.00 0.00 85 1010.2
20260904040805 25 164 4.8 9.7 0.00 0.00 0.00 85 1010.2
20260904040709 25 161 6.4 9.7 0.00 0.00 0.00 85 1010.2
20260904040558 25 157 8.0 9.7 0.00 0.00 0.00 85 1010.2
20260904040503 25 162 8.0 9.7 0.00 0.00 0.00 85 1010.1
20260904040429 25 161 6.4 9.7 0.00 0.00 0.00 85 1010.1
20260904040312 25 161 4.8 9.7 0.00 0.00 0.00 85 1010.1
20260904040217 25 173 3.2 9.7 0.00 0.00 0.00 85 1010.1
20260904040056 25 173 3.2 9.7 0.00 0.00 0.00 85 1010.1
20260904040021 25 173 3.2 9.7 0.00 0.00 0.00 86 1010.0
20260904035908 25 174 3.2 9.7 0.00 0.00 0.00 85 1010.0
20260904035833 25 174 4.8 9.7 0.00 0.00 0.00 85 1010.1
20260904035718 25 175 4.8 9.7 0.00 0.00 0.00 85 1010.0
20260904035621 25 174 6.4 9.7 0.00 0.00 0.00 86 1010.0
20260904035500 25 166 6.4 9.7 0.00 0.00 0.00 86 1010.0
20260904035405 25 182 6.4 9.7 0.00 0.00 0.00 86 1010.1
20260904035309 25 178 6.4 9.7 0.00 0.00 0.00 85 1010.1
20260904035217 25 167 4.8 9.7 0.00 0.00 0.00 85 1009.9
20260904035100 25 169 6.4 9.7 0.00 0.00 0.00 85 1010.0
20260904035004 25 171 6.4 9.7 0.00 0.00 0.00 85 1010.1
20260904034910 25 182 6.4 9.7 0.00 0.00 0.00 85 1010.1
20260904034814 25 193 6.4 9.7 0.00 0.00 0.00 85 1010.0
20260904034659 25 196 4.8 9.7 0.00 0.00 0.00 85 1010.0
20260904034624 25 201 4.8 9.7 0.00 0.00 0.00 85 1010.1
20260904034511 25 203 6.4 9.7 0.00 0.00 0.00 85 1010.1
20260904034417 25 202 6.4 9.7 0.00 0.00 0.00 85 1010.0
20260904034300 25 202 6.4 9.7 0.00 0.00 0.00 84 1010.1
20260904034204 25 200 6.4 9.7 0.00 0.00 0.00 84 1010.0
20260904034110 25 199 6.4 9.7 0.00 0.00 0.00 84 1010.0
20260904034014 25 198 8.0 9.7 0.00 0.00 0.00 84 1010.0
20260904033920 25 196 6.4 9.7 0.00 0.00 0.00 84 1010.0
20260904033807 25 191 6.4 9.7 0.00 0.00 0.00 84 1010.0
20260904033732 25 190 8.0 9.7 0.00 0.00 0.00 84 1010.0
20260904033557 25 197 6.4 11.3 0.00 0.00 0.00 84 1010.0
20260904033501 25 194 8.0 11.3 0.00 0.00 0.00 84 1010.1
20260904033407 25 192 6.4 11.3 0.00 0.00 0.00 84 1010.1
20260904033311 25 193 6.4 11.3 0.00 0.00 0.00 84 1010.1
20260904033200 25 197 6.4 11.3 0.00 0.00 0.00 84 1010.1
20260904033125 25 197 6.4 11.3 0.00 0.00 0.00 83 1010.1
20260904033009 25 197 6.4 11.3 0.00 0.00 0.00 83 1010.1
20260904032913 25 196 8.0 11.3 0.00 0.00 0.00 83 1010.1
20260904032759 26 207 8.0 12.9 0.00 0.00 0.00 83 1010.0
20260904032704 26 203 8.0 14.5 0.00 0.00 0.00 83 1010.0
20260904032612 26 205 8.0 14.5 0.00 0.00 0.00 83 1010.0
20260904032517 26 213 8.0 14.5 0.00 0.00 0.00 83 1010.0
20260904032355 26 207 6.4 14.5 0.00 0.00 0.00 83 1010.0
20260904032300 26 240 6.4 14.5 0.00 0.00 0.00 83 1010.1
20260904032204 26 220 8.0 14.5 0.00 0.00 0.00 83 1010.0
20260904032109 26 210 9.7 14.5 0.00 0.00 0.00 83 1010.0
20260904031958 26 198 9.7 14.5 0.00 0.00 0.00 83 1010.0
20260904031903 26 229 8.0 12.9 0.00 0.00 0.00 83 1010.0
20260904031829 26 235 8.0 12.9 0.00 0.00 0.00 83 1009.9
20260904031712 26 221 8.0 12.9 0.00 0.00 0.00 83 1009.9
20260904031558 26 238 8.0 12.9 0.00 0.00 0.00 83 1010.0
20260904031502 26 232 8.0 12.9 0.00 0.00 0.00 83 1010.0
20260904031411 26 241 8.0 12.9 0.00 0.00 0.00 83 1010.0
20260904031316 26 236 9.7 14.5 0.00 0.00 0.00 83 1009.9
20260904031220 26 236 9.7 14.5 0.00 0.00 0.00 83 1009.9
20260904031057 26 239 9.7 14.5 0.00 0.00 0.00 83 1009.9
20260904031002 26 232 9.7 14.5 0.00 0.00 0.00 83 1009.9
20260904030908 26 234 9.7 16.1 0.00 0.00 0.00 83 1009.9
20260904030833 26 232 9.7 16.1 0.00 0.00 0.00 83 1009.9
20260904030700 26 248 8.0 16.1 0.00 0.00 0.00 82 1009.9
20260904030604 26 244 8.0 16.1 0.00 0.00 0.00 82 1009.9
20260904030510 26 252 8.0 16.1 0.00 0.00 0.00 82 1009.9
20260904030417 26 227 8.0 16.1 0.00 0.00 0.00 82 1010.0
20260904030319 26 246 9.7 16.1 0.00 0.00 0.00 82 1010.0
20260904030157 26 254 11.3 16.1 0.00 0.00 0.00 82 1010.0
20260904030107 26 219 9.7 16.1 0.00 0.00 0.00 82 1010.0
20260904030012 26 220 8.0 14.5 0.00 0.00 0.00 82 1010.0
20260904025856 26 228 9.7 14.5 0.00 0.00 0.00 82 1009.9
20260904025800 26 240 9.7 14.5 0.00 0.00 0.00 82 1009.9
20260904025706 26 235 8.0 14.5 0.00 0.00 0.00 82 1010.0
20260904025610 26 227 8.0 14.5 0.00 0.00 0.00 82 1010.0
20260904025458 26 221 8.0 14.5 0.00 0.00 0.00 82 1010.0
20260904025424 26 234 8.0 14.5 0.00 0.00 0.00 82 1010.0
20260904025307 26 228 9.7 14.5 0.00 0.00 0.00 82 1010.1
20260904025210 26 247 8.0 14.5 0.00 0.00 0.00 82 1010.1
20260904025055 26 218 6.4 12.9 0.00 0.00 0.00 82 1010.1
20260904025000 26 217 8.0 12.9 0.00 0.00 0.00 82 1010.1
20260904024929 26 217 8.0 12.9 0.00 0.00 0.00 82 1010.1
20260904024814 26 217 8.0 12.9 0.00 0.00 0.00 82 1010.1
20260904024718 26 226 9.7 14.5 0.00 0.00 0.00 82 1010.1
20260904024555 26 230 8.0 12.9 0.00 0.00 0.00 82 1010.1
20260904024458 26 224 8.0 12.9 0.00 0.00 0.00 81 1010.0
20260904024402 26 211 8.0 12.9 0.00 0.00 0.00 81 1010.0
20260904024327 26 240 8.0 14.5 0.00 0.00 0.00 81 1010.0
20260904024211 26 238 9.7 14.5 0.00 0.00 0.00 81 1010.0
20260904024120 26 214 9.7 14.5 0.00 0.00 0.00 81 1010.0
20260904023957 26 227 9.7 14.5 0.00 0.00 0.00 81 1010.0
20260904023902 26 223 9.7 14.5 0.00 0.00 0.00 81 1010.0
20260904023807 26 226 8.0 14.5 0.00 0.00 0.00 81 1010.0
20260904023711 26 213 8.0 14.5 0.00 0.00 0.00 81 1010.0
20260904023615 26 220 9.7 14.5 0.00 0.00 0.00 81 1010.0
20260904023504 26 220 9.7 14.5 0.00 0.00 0.00 81 1010.0
20260904023408 26 216 9.7 12.9 0.00 0.00 0.00 81 1010.0
20260904023314 26 225 9.7 12.9 0.00 0.00 0.00 81 1010.0
20260904023159 26 215 9.7 14.5 0.00 0.00 0.00 81 1010.0
20260904023104 26 225 9.7 12.9 0.00 0.00 0.00 80 1010.0
20260904023008 26 217 9.7 12.9 0.00 0.00 0.00 80 1009.9
20260904022936 26 216 9.7 12.9 0.00 0.00 0.00 80 1009.9
20260904022820 26 218 9.7 12.9 0.00 0.00 0.00 80 1009.9
20260904022657 26 219 9.7 12.9 0.00 0.00 0.00 80 1010.0
20260904022602 26 220 9.7 12.9 0.00 0.00 0.00 80 1010.0
20260904022507 26 217 9.7 12.9 0.00 0.00 0.00 80 1009.9
20260904022411 26 231 9.7 12.9 0.00 0.00 0.00 80 1009.9
20260904022300 26 229 9.7 12.9 0.00 0.00 0.00 80 1009.9
20260904022204 26 221 9.7 11.3 0.00 0.00 0.00 80 1010.0
20260904022129 26 223 9.7 11.3 0.00 0.00 0.00 80 1010.0
20260904022013 26 219 8.0 11.3 0.00 0.00 0.00 80 1010.0
20260904021918 26 225 8.0 11.3 0.00 0.00 0.00 80 1009.9
20260904021755 26 221 8.0 11.3 0.00 0.00 0.00 80 1009.9
20260904021705 26 209 8.0 11.3 0.00 0.00 0.00 80 1010.0
20260904021629 26 229 8.0 11.3 0.00 0.00 0.00 80 1010.0
20260904021533 26 217 8.0 11.3 0.00 0.00 0.00 79 1010.0
20260904021417 26 215 8.0 11.3 0.00 0.00 0.00 79 1010.0
20260904021255 26 211 8.0 11.3 0.00 0.00 0.00 79 1010.0
20260904021200 26 215 6.4 11.3 0.00 0.00 0.00 79 1010.0
20260904021105 26 213 8.0 12.9 0.00 0.00 0.00 79 1010.0
20260904021008 26 207 8.0 12.9 0.00 0.00 0.00 79 1009.8
20260904020856 26 225 8.0 14.5 0.00 0.00 0.00 79 1009.9
20260904020821 26 217 8.0 14.5 0.00 0.00 0.00 79 1009.9
20260904020705 26 214 8.0 14.5 0.00 0.00 0.00 79 1009.9
20260904020608 26 215 8.0 14.5 0.00 0.00 0.00 79 1010.0
20260904020512 26 220 8.0 14.5 0.00 0.00 0.00 79 1010.0
20260904020356 26 212 8.0 14.5 0.00 0.00 0.00 78 1010.0
20260904020304 26 220 9.7 14.5 0.00 0.00 0.00 78 1010.0
20260904020229 26 217 9.7 14.5 0.00 0.00 0.00 78 1010.0
20260904020114 26 215 9.7 14.5 0.00 0.00 0.00 78 1010.0
20260904020019 27 225 8.0 12.9 0.00 0.00 0.00 78 1010.1
20260904015922 27 216 8.0 12.9 0.00 0.00 0.00 78 1010.1
20260904015807 27 211 8.0 12.9 0.00 0.00 0.00 78 1010.1
20260904015711 27 217 8.0 12.9 0.00 0.00 0.00 78 1010.1
20260904015600 27 202 8.0 12.9 0.00 0.00 0.00 78 1010.0
20260904015504 27 212 8.0 11.3 0.00 0.00 0.00 78 1010.0
20260904015409 27 208 8.0 11.3 0.00 0.00 0.00 78 1010.0
20260904015315 27 221 8.0 11.3 0.00 0.00 0.00 78 1010.1
20260904015219 27 220 8.0 11.3 0.00 0.00 0.00 78 1010.1
20260904015057 27 211 6.4 12.9 0.00 0.00 0.00 78 1010.1
20260904015007 27 218 6.4 12.9 0.00 0.00 0.00 78 1010.0
20260904014931 27 217 8.0 12.9 0.00 0.00 0.00 78 1010.0
20260904014815 27 232 8.0 12.9 0.00 0.00 0.00 78 1010.1
20260904014721 27 230 8.0 12.9 0.00 0.00 0.00 78 1010.0
20260904014558 27 223 6.4 11.3 0.00 0.00 0.00 78 1010.1
20260904014523 27 224 8.0 11.3 0.00 0.00 0.00 77 1010.1
20260904014407 27 231 8.0 11.3 0.00 0.00 0.00 77 1010.1
20260904014331 27 232 8.0 11.3 0.00 0.00 0.00 78 1010.1
20260904014200 27 235 6.4 11.3 0.00 0.00 0.00 78 1010.0
20260904014104 27 211 6.4 11.3 0.00 0.00 0.00 78 1010.1
20260904014009 27 210 8.0 11.3 0.00 0.00 0.00 77 1010.1
20260904013914 27 209 8.0 11.3 0.00 0.00 0.00 78 1010.2
20260904013819 27 216 8.0 12.9 0.00 0.00 0.00 77 1010.1
20260904013703 27 213 8.0 12.9 0.00 0.00 0.00 77 1010.1
20260904013612 27 209 8.0 12.9 0.00 0.00 0.00 77 1010.1
20260904013518 27 218 8.0 12.9 0.00 0.00 0.00 77 1010.1
20260904013355 27 202 8.0 12.9 0.00 0.00 0.00 77 1010.0
20260904013301 27 205 8.0 12.9 0.00 0.00 0.00 77 1010.0
20260904013226 27 202 8.0 12.9 0.00 0.00 0.00 77 1010.0
20260904013110 27 222 8.0 12.9 0.00 0.00 0.00 77 1010.0
20260904012958 27 201 8.0 12.9 0.00 0.00 0.00 77 1010.0
20260904012904 27 209 8.0 11.3 0.00 0.00 0.00 77 1010.0
20260904012808 27 204 8.0 11.3 0.00 0.00 0.00 77 1010.0
20260904012713 27 207 8.0 11.3 0.00 0.00 0.00 77 1009.9
20260904012619 27 211 6.4 11.3 0.00 0.00 0.00 77 1009.9
20260904012457 27 211 6.4 11.3 0.00 0.00 0.00 77 1009.9
20260904012426 27 211 6.4 11.3 0.00 0.00 0.00 77 1009.9
20260904012309 27 215 6.4 11.3 0.00 0.00 0.00 77 1009.9
20260904012214 27 209 6.4 11.3 0.00 0.00 0.00 77 1009.9
20260904012059 27 208 6.4 11.3 0.00 0.00 0.00 77 1009.9
20260904012004 27 208 6.4 11.3 0.00 0.00 0.00 77 1009.9
20260904011908 27 208 6.4 11.3 0.00 0.00 0.00 77 1009.9
20260904011756 27 208 8.0 11.3 0.00 0.00 0.00 76 1009.9
20260904011702 27 204 6.4 9.7 0.00 0.00 0.00 76 1009.8
20260904011626 27 198 6.4 9.7 0.00 0.00 0.00 76 1009.9
20260904011510 27 197 6.4 9.7 0.00 0.00 0.00 76 1009.9
20260904011355 27 196 8.0 9.7 0.00 0.00 0.00 76 1009.8
20260904011301 27 193 6.4 9.7 0.00 0.00 0.00 76 1009.9
20260904011226 27 193 6.4 9.7 0.00 0.00 0.00 76 1009.8
20260904011114 27 215 6.4 9.7 0.00 0.00 0.00 76 1009.8
20260904011019 27 215 6.4 9.7 0.00 0.00 0.00 76 1009.8
20260904010856 27 209 4.8 9.7 0.00 0.00 0.00 76 1009.8
20260904010801 27 208 4.8 9.7 0.00 0.00 0.00 76 1009.7
20260904010726 27 207 6.4 9.7 0.00 0.00 0.00 75 1009.8
20260904010609 27 207 6.4 9.7 0.00 0.00 0.00 75 1009.8
20260904010458 27 207 4.8 9.7 0.00 0.00 0.00 75 1009.7
20260904010403 27 224 6.4 9.7 0.00 0.00 0.00 75 1009.7
20260904010308 27 224 6.4 9.7 0.00 0.00 0.00 75 1009.7
20260904010213 27 226 6.4 9.7 0.00 0.00 0.00 75 1009.7
20260904010118 27 229 6.4 9.7 0.00 0.00 0.00 75 1009.7
20260904005955 27 232 6.4 9.7 0.00 0.00 0.00 75 1009.7
20260904005924 27 197 6.4 9.7 0.00 0.00 0.00 75 1009.7
20260904005808 27 219 4.8 9.7 0.00 0.00 0.00 75 1009.7
20260904005713 27 219 4.8 9.7 0.00 0.00 0.00 74 1009.7
20260904005558 27 218 8.0 9.7 0.00 0.00 0.00 74 1009.7
20260904005502 27 219 8.0 11.3 0.00 0.00 0.00 74 1009.6
20260904005428 27 217 8.0 11.3 0.00 0.00 0.00 74 1009.6
20260904005312 27 220 6.4 11.3 0.00 0.00 0.00 74 1009.6
20260904005242 27 212 6.4 11.3 0.00 0.00 0.00 74 1009.6
20260904005059 27 225 6.4 11.3 0.00 0.00 0.00 74 1009.6
20260904005003 27 224 6.4 11.3 0.00 0.00 0.00 74 1009.6
20260904004908 27 212 6.4 11.3 0.00 0.00 0.00 74 1009.6
20260904004813 27 212 8.0 11.3 0.00 0.00 0.00 74 1009.7
20260904004657 27 211 6.4 11.3 0.00 0.00 0.00 74 1009.6
20260904004606 27 223 6.4 11.3 0.00 0.00 0.00 74 1009.6
20260904004531 27 223 6.4 11.3 0.00 0.00 0.00 74 1009.6
20260904004435 27 211 4.8 11.3 0.00 0.00 0.00 74 1009.6
20260904004300 27 211 6.4 11.3 0.00 0.00 0.00 74 1009.6
20260904004204 27 211 6.4 11.3 0.00 0.00 0.00 74 1009.6
20260904004109 27 211 6.4 11.3 0.00 0.00 0.00 74 1009.6
20260904003958 28 215 6.4 11.3 0.00 0.00 0.00 74 1009.6
20260904003903 28 216 8.0 11.3 0.00 0.00 0.00 74 1009.6
20260904003808 27 231 6.4 11.3 0.00 0.00 0.00 74 1009.6
20260904003712 28 201 6.4 9.7 0.00 0.00 0.00 74 1009.6
20260904003557 28 216 6.4 9.7 0.00 0.00 0.00 74 1009.6
20260904003502 28 215 6.4 11.3 0.00 0.00 0.00 74 1009.6
20260904003427 28 215 6.4 11.3 0.00 0.00 0.00 74 1009.6
20260904003255 28 216 6.4 11.3 0.00 0.00 0.00 74 1009.6
20260904003200 28 215 8.0 11.3 0.00 0.00 0.00 74 1009.5
20260904003105 28 214 8.0 11.3 0.00 0.00 0.00 74 1009.6
20260904003010 28 225 8.0 11.3 0.00 0.00 0.00 74 1009.6
20260904002855 28 198 6.4 11.3 0.00 0.00 0.00 73 1009.6
20260904002805 28 194 6.4 11.3 0.00 0.00 0.00 73 1009.6
20260904002730 28 217 8.0 11.3 0.00 0.00 0.00 73 1009.6
20260904002614 28 215 8.0 11.3 0.00 0.00 0.00 73 1009.6
20260904002458 28 221 6.4 11.3 0.00 0.00 0.00 73 1009.5
20260904002402 28 196 6.4 11.3 0.00 0.00 0.00 73 1009.6
20260904002328 28 222 8.0 11.3 0.00 0.00 0.00 73 1009.6
20260904002231 28 215 8.0 11.3 0.00 0.00 0.00 73 1009.6
20260904002059 28 210 8.0 11.3 0.00 0.00 0.00 73 1009.6
20260904002003 28 216 8.0 11.3 0.00 0.00 0.00 73 1009.6
20260904001909 28 218 8.0 11.3 0.00 0.00 0.00 73 1009.6
20260904001813 28 219 8.0 12.9 0.00 0.00 0.00 73 1009.6
20260904001718 28 198 6.4 12.9 0.00 0.00 0.00 72 1009.6
20260904001602 28 215 6.4 12.9 0.00 0.00 0.00 72 1009.6
20260904001506 28 214 6.4 16.1 0.00 0.00 0.00 72 1009.7
20260904001415 28 213 8.0 16.1 0.00 0.00 0.00 72 1009.7
20260904001259 28 246 8.0 16.1 0.00 0.00 0.00 72 1009.6
20260904001205 28 223 8.0 16.1 0.00 0.00 0.00 72 1009.5
20260904001109 28 236 8.0 16.1 0.00 0.00 0.00 72 1009.5
20260904001014 28 220 9.7 16.1 0.00 0.00 0.00 72 1009.6
20260904000903 28 219 8.0 16.1 0.00 0.00 0.00 72 1009.5
20260904000808 28 227 9.7 16.1 0.00 0.00 0.00 72 1009.5
20260904000713 28 252 12.9 16.1 0.00 0.00 0.00 72 1009.6
20260904000640 28 223 9.7 16.1 0.00 0.00 0.00 72 1009.6
20260904000456 28 236 6.4 16.1 0.00 0.00 0.00 72 1009.6
20260904000421 28 217 8.0 16.1 0.00 0.00 0.00 72 1009.6
20260904000305 28 250 8.0 16.1 0.00 0.00 0.00 71 1009.6
20260904000214 28 224 8.0 16.1 0.00 0.00 0.00 72 1009.6
20260904000119 28 211 8.0 16.1 0.00 0.00 0.00 72 1009.5
20260903235955 28 223 8.0 16.1 0.00 0.00 0.00 71 1009.6
20260903235900 28 238 8.0 16.1 0.00 0.00 0.00 71 1009.5
20260903235804 28 232 8.0 16.1 0.00 0.00 0.00 71 1009.5
20260903235729 28 223 9.7 16.1 0.00 0.00 0.00 71 1009.5
20260903235557 28 245 12.9 16.1 0.00 0.00 0.00 71 1009.5
20260903235502 28 219 11.3 17.7 0.00 0.00 0.00 71 1009.5
20260903235408 28 227 8.0 17.7 0.00 0.00 0.00 71 1009.5
20260903235312 28 238 8.0 17.7 0.00 0.00 0.00 71 1009.5
20260903235217 28 225 12.9 17.7 0.00 0.00 0.00 71 1009.6
20260903235101 28 221 12.9 17.7 0.00 0.00 0.00 71 1009.5
20260903235007 28 234 11.3 17.7 0.00 0.00 0.00 71 1009.6
20260903234855 28 256 11.3 17.7 0.00 0.00 0.00 71 1009.5
20260903234800 28 252 14.5 17.7 0.00 0.00 0.00 71 1009.5
20260903234706 28 246 12.9 17.7 0.00 0.00 0.00 70 1009.5
20260903234610 28 260 12.9 17.7 0.00 0.00 0.00 70 1009.5
20260903234535 28 206 11.3 16.1 0.00 0.00 0.00 70 1009.5
20260903234359 28 217 12.9 16.1 0.00 0.00 0.00 70 1009.4
20260903234308 28 218 12.9 16.1 0.00 0.00 0.00 70 1009.4
20260903234213 28 223 11.3 17.7 0.00 0.00 0.00 70 1009.3
20260903234118 28 238 8.0 20.9 0.00 0.00 0.00 70 1009.4
20260903234002 28 248 8.0 20.9 0.00 0.00 0.00 70 1009.3
20260903233926 28 236 8.0 20.9 0.00 0.00 0.00 70 1009.3
20260903233810 28 252 9.7 20.9 0.00 0.00 0.00 70 1009.3
20260903233731 28 239 11.3 20.9 0.00 0.00 0.00 70 1009.3
20260903233559 28 208 11.3 20.9 0.00 0.00 0.00 69 1009.2
20260903233504 28 227 12.9 22.5 0.00 0.00 0.00 69 1009.2
20260903233410 28 217 12.9 22.5 0.00 0.00 0.00 69 1009.2
20260903233314 28 209 12.9 22.5 0.00 0.00 0.00 69 1009.2
20260903233159 28 242 11.3 24.1 0.00 0.00 0.00 69 1009.3
20260903233104 28 205 12.9 25.7 0.00 0.00 0.00 69 1009.2
20260903233013 29 234 14.5 25.7 0.00 0.00 0.00 69 1009.2
20260903232919 29 237 12.9 25.7 0.00 0.00 0.00 69 1009.2
20260903232756 29 229 16.1 25.7 0.00 0.00 0.00 68 1009.1
20260903232721 29 225 16.1 25.7 0.00 0.00 0.00 68 1009.1
20260903232558 29 235 16.1 25.7 0.00 0.00 0.00 68 1009.1
20260903232503 29 264 19.3 25.7 0.00 0.00 0.00 68 1009.1
20260903232413 29 232 17.7 25.7 0.00 0.00 0.00 68 1009.1
20260903232337 29 252 12.9 25.7 0.00 0.00 0.00 68 1009.1
20260903232242 29 246 14.5 25.7 0.00 0.00 0.00 68 1009.1
20260903232058 29 229 14.5 25.7 0.00 0.00 0.00 68 1009.1
20260903232003 29 235 16.1 25.7 0.00 0.00 0.00 68 1009.0
20260903231927 29 212 16.1 25.7 0.00 0.00 0.00 68 1009.1
20260903231811 29 233 12.9 25.7 0.00 0.00 0.00 68 1009.1
20260903231659 29 236 14.5 25.7 0.00 0.00 0.00 68 1009.0
20260903231604 29 257 12.9 25.7 0.00 0.00 0.00 68 1009.1
20260903231510 29 228 12.9 24.1 0.00 0.00 0.00 68 1009.1
20260903231434 29 243 14.5 24.1 0.00 0.00 0.00 68 1009.1
20260903231318 29 192 16.1 24.1 0.00 0.00 0.00 68 1009.1
20260903231156 29 261 14.5 24.1 0.00 0.00 0.00 67 1009.0
20260903231121 29 250 16.1 24.1 0.00 0.00 0.00 67 1009.1
20260903231010 29 236 19.3 24.1 0.00 0.00 0.00 67 1009.1
20260903230914 29 244 17.7 24.1 0.00 0.00 0.00 67 1009.0
20260903230818 29 208 11.3 20.9 0.00 0.00 0.00 68 1009.0
20260903230702 29 215 11.3 20.9 0.00 0.00 0.00 68 1009.0
20260903230627 29 213 14.5 20.9 0.00 0.00 0.00 68 1009.0
20260903230510 29 209 16.1 20.9 0.00 0.00 0.00 67 1009.0
20260903230359 29 207 16.1 22.5 0.00 0.00 0.00 68 1008.9
20260903230304 29 236 16.1 22.5 0.00 0.00 0.00 67 1008.9
20260903230208 29 234 16.1 22.5 0.00 0.00 0.00 67 1008.9
20260903230131 29 216 14.5 22.5 0.00 0.00 0.00 67 1008.9
20260903225956 29 199 12.9 19.3 0.00 0.00 0.00 68 1009.0
20260903225900 29 208 12.9 19.3 0.00 0.00 0.00 67 1009.0
20260903225804 29 255 11.3 19.3 0.00 0.00 0.00 68 1009.1
20260903225734 29 211 12.9 19.3 0.00 0.00 0.00 68 1009.1
20260903225558 29 233 11.3 19.3 0.00 0.00 0.00 68 1009.0
20260903225502 29 254 8.0 19.3 0.00 0.00 0.00 68 1009.1
20260903225426 29 250 8.0 19.3 0.00 0.00 0.00 69 1009.0
20260903225310 29 235 8.0 19.3 0.00 0.00 0.00 68 1009.0
20260903225155 29 248 12.9 19.3 0.00 0.00 0.00 68 1009.0
20260903225104 29 272 12.9 19.3 0.00 0.00 0.00 68 1009.1
20260903225009 29 219 11.3 19.3 0.00 0.00 0.00 68 1009.1
20260903224914 29 205 12.9 19.3 0.00 0.00 0.00 68 1009.1
20260903224819 29 196 12.9 19.3 0.00 0.00 0.00 68 1009.1
20260903224703 29 216 11.3 19.3 0.00 0.00 0.00 68 1009.1
20260903224608 29 240 9.7 19.3 0.00 0.00 0.00 68 1009.1
20260903224457 29 211 8.0 19.3 0.00 0.00 0.00 68 1009.2
20260903224402 29 237 11.3 19.3 0.00 0.00 0.00 68 1009.2